Wetterdaten: Montag, 24.06.2013
Datum Zeit Temp. Aussen +5cm Feuchte Auss Luftdruck Regen Sonnenschein Regendauer UV Solar Windben
24.06.2013 00:00 14,2 C 13,4 C 88 % 1014,0 hPa 0,0 l/m 0 min 0 min 0,0 UV-I 0 W/m 5,1 km/h (1 Bft)
24.06.2013 00:02 14,2 C 13,4 C 87 % 1014,0 hPa 0,0 l/m 0 min 0 min 0,0 UV-I 0 W/m 2,6 km/h (1 Bft)
24.06.2013 00:05 14,3 C 13,4 C 87 % 1014,0 hPa 0,0 l/m 0 min 0 min 0,0 UV-I 0 W/m 0,0 km/h (0 Bft)
24.06.2013 00:06 14,3 C 13,4 C 87 % 1014,0 hPa 0,0 l/m 0 min 0 min 0,0 UV-I 0 W/m 12,9 km/h (3 Bft)
24.06.2013 00:08 14,3 C 13,4 C 87 % 1014,1 hPa 0,0 l/m 0 min 0 min 0,0 UV-I 0 W/m 12,9 km/h (3 Bft)
24.06.2013 00:10 14,3 C 13,4 C 87 % 1014,0 hPa 0,0 l/m 0 min 0 min 0,0 UV-I 0 W/m 7,7 km/h (2 Bft)
24.06.2013 00:12 14,3 C 13,4 C 86 % 1014,1 hPa 0,0 l/m 0 min 0 min 0,0 UV-I 0 W/m 10,3 km/h (2 Bft)
24.06.2013 00:14 14,3 C 13,4 C 86 % 1014,1 hPa 0,0 l/m 0 min 0 min 0,0 UV-I 0 W/m 10,3 km/h (2 Bft)
24.06.2013 00:16 14,3 C 13,4 C 86 % 1014,1 hPa 0,0 l/m 0 min 0 min 0,0 UV-I 0 W/m 7,7 km/h (2 Bft)
24.06.2013 00:18 14,3 C 13,4 C 85 % 1014,1 hPa 0,0 l/m 0 min 0 min 0,0 UV-I 0 W/m 10,3 km/h (2 Bft)
24.06.2013 00:20 14,3 C 13,4 C 85 % 1014,1 hPa 0,0 l/m 0 min 0 min 0,0 UV-I 0 W/m 12,9 km/h (3 Bft)
24.06.2013 00:22 14,3 C 13,4 C 85 % 1014,1 hPa 0,0 l/m 0 min 0 min 0,0 UV-I 0 W/m 7,7 km/h (2 Bft)
24.06.2013 00:24 14,4 C 13,4 C 85 % 1014,1 hPa 0,0 l/m 0 min 0 min 0,0 UV-I 0 W/m 15,4 km/h (3 Bft)
24.06.2013 00:26 14,4 C 13,4 C 87 % 1014,1 hPa 0,0 l/m 0 min 0 min 0,0 UV-I 0 W/m 7,7 km/h (2 Bft)
24.06.2013 00:28 14,4 C 13,4 C 84 % 1014,1 hPa 0,0 l/m 0 min 0 min 0,0 UV-I 0 W/m 7,7 km/h (2 Bft)
24.06.2013 00:30 14,4 C 13,4 C 84 % 1014,1 hPa 0,0 l/m 0 min 0 min 0,0 UV-I 0 W/m 5,1 km/h (1 Bft)
24.06.2013 00:32 14,4 C 13,4 C 84 % 1014,2 hPa 0,0 l/m 0 min 0 min 0,0 UV-I 0 W/m 15,4 km/h (3 Bft)
24.06.2013 00:34 14,4 C 13,4 C 84 % 1014,2 hPa 0,0 l/m 0 min 0 min 0,0 UV-I 0 W/m 15,4 km/h (3 Bft)
24.06.2013 00:36 14,4 C 13,4 C 83 % 1014,2 hPa 0,0 l/m 0 min 0 min 0,0 UV-I 0 W/m 10,3 km/h (2 Bft)
24.06.2013 00:38 14,4 C 13,4 C 83 % 1014,3 hPa 0,0 l/m 0 min 0 min 0,0 UV-I 0 W/m 10,3 km/h (2 Bft)
24.06.2013 00:40 14,4 C 13,4 C 83 % 1014,2 hPa 0,0 l/m 0 min 0 min 0,0 UV-I 0 W/m 18,0 km/h (3 Bft)
24.06.2013 00:42 14,4 C 13,4 C 83 % 1014,4 hPa 0,0 l/m 0 min 0 min 0,0 UV-I 0 W/m 10,3 km/h (2 Bft)
24.06.2013 00:44 14,4 C 13,4 C 83 % 1014,3 hPa 0,0 l/m 0 min 0 min 0,0 UV-I 0 W/m 7,7 km/h (2 Bft)
24.06.2013 00:46 14,4 C 13,4 C 83 % 1014,4 hPa 0,0 l/m 0 min 0 min 0,0 UV-I 0 W/m 7,7 km/h (2 Bft)
24.06.2013 00:48 14,4 C 13,4 C 83 % 1014,4 hPa 0,0 l/m 0 min 0 min 0,0 UV-I 0 W/m 7,7 km/h (2 Bft)
24.06.2013 00:50 14,4 C 13,4 C 83 % 1014,3 hPa 0,0 l/m 0 min 0 min 0,0 UV-I 0 W/m 10,3 km/h (2 Bft)
24.06.2013 00:52 14,4 C 13,4 C 83 % 1014,4 hPa 0,0 l/m 0 min 0 min 0,0 UV-I 0 W/m 12,9 km/h (3 Bft)
24.06.2013 00:54 14,4 C 13,4 C 83 % 1014,4 hPa 0,0 l/m 0 min 0 min 0,0 UV-I 0 W/m 15,4 km/h (3 Bft)
24.06.2013 00:56 14,4 C 13,4 C 83 % 1014,4 hPa 0,0 l/m 0 min 0 min 0,0 UV-I 0 W/m 20,6 km/h (4 Bft)
24.06.2013 00:58 14,3 C 13,4 C 83 % 1014,4 hPa 0,0 l/m 0 min 0 min 0,0 UV-I 0 W/m 5,1 km/h (1 Bft)
24.06.2013 01:00 14,3 C 13,4 C 83 % 1014,4 hPa 0,0 l/m 0 min 0 min 0,0 UV-I 0 W/m 15,4 km/h (3 Bft)
24.06.2013 01:02 14,3 C 13,4 C 83 % 1014,4 hPa 0,0 l/m 0 min 0 min 0,0 UV-I 0 W/m 5,1 km/h (1 Bft)
24.06.2013 01:06 14,3 C 13,4 C 83 % 1014,4 hPa 0,0 l/m 0 min 0 min 0,0 UV-I 0 W/m 12,9 km/h (3 Bft)
24.06.2013 01:08 14,3 C 13,4 C 83 % 1014,6 hPa 0,0 l/m 0 min 0 min 0,0 UV-I 0 W/m 18,0 km/h (3 Bft)
24.06.2013 01:10 14,3 C 13,4 C 83 % 1014,6 hPa 0,0 l/m 0 min 0 min 0,0 UV-I 0 W/m 12,9 km/h (3 Bft)
24.06.2013 01:12 14,3 C 13,4 C 83 % 1014,5 hPa 0,0 l/m 0 min 0 min 0,0 UV-I 0 W/m 7,7 km/h (2 Bft)
24.06.2013 01:14 14,3 C 13,4 C 83 % 1014,6 hPa 0,0 l/m 0 min 0 min 0,0 UV-I 0 W/m 10,3 km/h (2 Bft)
24.06.2013 01:16 14,3 C 13,4 C 83 % 1014,7 hPa 0,0 l/m 0 min 0 min 0,0 UV-I 0 W/m 12,9 km/h (3 Bft)
24.06.2013 01:18 14,3 C 13,4 C 83 % 1014,7 hPa 0,0 l/m 0 min 0 min 0,0 UV-I 0 W/m 5,1 km/h (1 Bft)
24.06.2013 01:20 14,3 C 13,4 C 84 % 1014,7 hPa 0,0 l/m 0 min 0 min 0,0 UV-I 0 W/m 12,9 km/h (3 Bft)
24.06.2013 01:22 14,2 C 13,4 C 84 % 1014,7 hPa 0,0 l/m 0 min 0 min 0,0 UV-I 0 W/m 5,1 km/h (1 Bft)
24.06.2013 01:24 14,2 C 12,9 C 84 % 1014,7 hPa 0,0 l/m 0 min 0 min 0,0 UV-I 0 W/m 7,7 km/h (2 Bft)
24.06.2013 01:26 14,2 C 12,9 C 84 % 1014,7 hPa 0,0 l/m 0 min 0 min 0,0 UV-I 0 W/m 12,9 km/h (3 Bft)
24.06.2013 01:28 14,2 C 12,9 C 85 % 1014,8 hPa 0,0 l/m 0 min 0 min 0,0 UV-I 0 W/m 7,7 km/h (2 Bft)
24.06.2013 01:30 14,2 C 12,9 C 85 % 1014,9 hPa 0,0 l/m 0 min 2 min 0,0 UV-I 0 W/m 7,7 km/h (2 Bft)
24.06.2013 01:32 14,2 C 12,9 C 85 % 1014,8 hPa 0,0 l/m 0 min 0 min 0,0 UV-I 0 W/m 5,1 km/h (1 Bft)
24.06.2013 01:34 14,2 C 12,9 C 85 % 1014,8 hPa 0,0 l/m 0 min 0 min 0,0 UV-I 0 W/m 0,0 km/h (0 Bft)
24.06.2013 01:36 14,2 C 12,9 C 86 % 1014,8 hPa 0,0 l/m 0 min 2 min 0,0 UV-I 0 W/m 0,0 km/h (0 Bft)
24.06.2013 01:38 14,2 C 12,9 C 86 % 1014,8 hPa 0,0 l/m 0 min 0 min 0,0 UV-I 0 W/m 2,6 km/h (1 Bft)
24.06.2013 01:40 14,1 C 12,3 C 86 % 1014,8 hPa 0,0 l/m 0 min 2 min 0,0 UV-I 0 W/m 18,0 km/h (3 Bft)
24.06.2013 01:42 14,0 C 12,3 C 86 % 1014,8 hPa 0,0 l/m 0 min 2 min 0,0 UV-I 0 W/m 15,4 km/h (3 Bft)
24.06.2013 01:44 14,0 C 12,3 C 86 % 1014,8 hPa 0,0 l/m 0 min 2 min 0,0 UV-I 0 W/m 0,0 km/h (0 Bft)
24.06.2013 01:46 14,0 C 11,8 C 87 % 1014,9 hPa 0,0 l/m 0 min 2 min 0,0 UV-I 0 W/m 2,6 km/h (1 Bft)
24.06.2013 01:48 14,0 C 11,8 C 87 % 1014,8 hPa 0,0 l/m 0 min 2 min 0,0 UV-I 0 W/m 10,3 km/h (2 Bft)
24.06.2013 01:50 14,0 C 11,8 C 87 % 1014,8 hPa 0,0 l/m 0 min 0 min 0,0 UV-I 0 W/m 10,3 km/h (2 Bft)
24.06.2013 01:52 13,9 C 11,8 C 87 % 1014,8 hPa 0,0 l/m 0 min 0 min 0,0 UV-I 0 W/m 12,9 km/h (3 Bft)
24.06.2013 01:54 13,9 C 11,8 C 87 % 1014,9 hPa 0,0 l/m 0 min 0 min 0,0 UV-I 0 W/m 7,7 km/h (2 Bft)
24.06.2013 01:56 13,8 C 11,8 C 87 % 1014,9 hPa 0,0 l/m 0 min 0 min 0,0 UV-I 0 W/m 5,1 km/h (1 Bft)
24.06.2013 01:58 13,8 C 11,8 C 88 % 1014,9 hPa 0,0 l/m 0 min 0 min 0,0 UV-I 0 W/m 12,9 km/h (3 Bft)
24.06.2013 02:00 13,7 C 11,8 C 88 % 1014,9 hPa 0,0 l/m 0 min 0 min 0,0 UV-I 0 W/m 10,3 km/h (2 Bft)
24.06.2013 02:02 13,7 C 12,3 C 88 % 1014,9 hPa 0,0 l/m 0 min 0 min 0,0 UV-I 0 W/m 10,3 km/h (2 Bft)
24.06.2013 02:06 13,6 C 12,3 C 88 % 1014,9 hPa 0,0 l/m 0 min 0 min 0,0 UV-I 0 W/m 7,7 km/h (2 Bft)
24.06.2013 02:08 13,6 C 12,3 C 88 % 1014,9 hPa 0,0 l/m 0 min 0 min 0,0 UV-I 0 W/m 5,1 km/h (1 Bft)
24.06.2013 02:10 13,6 C 12,3 C 88 % 1014,9 hPa 0,0 l/m 0 min 0 min 0,0 UV-I 0 W/m 2,6 km/h (1 Bft)
24.06.2013 02:12 13,5 C 12,3 C 88 % 1015,0 hPa 0,0 l/m 0 min 0 min 0,0 UV-I 0 W/m 10,3 km/h (2 Bft)
24.06.2013 02:14 13,5 C 12,3 C 88 % 1014,9 hPa 0,0 l/m 0 min 0 min 0,0 UV-I 0 W/m 7,7 km/h (2 Bft)
24.06.2013 02:16 13,4 C 12,3 C 88 % 1015,0 hPa 0,0 l/m 0 min 0 min 0,0 UV-I 0 W/m 7,7 km/h (2 Bft)
24.06.2013 02:18 13,4 C 12,3 C 89 % 1015,0 hPa 0,0 l/m 0 min 0 min 0,0 UV-I 0 W/m 10,3 km/h (2 Bft)
24.06.2013 02:20 13,4 C 12,3 C 89 % 1015,0 hPa 0,0 l/m 0 min 0 min 0,0 UV-I 0 W/m 10,3 km/h (2 Bft)
24.06.2013 02:22 13,4 C 12,3 C 89 % 1015,0 hPa 0,0 l/m 0 min 0 min 0,0 UV-I 0 W/m 5,1 km/h (1 Bft)
24.06.2013 02:24 13,4 C 12,3 C 89 % 1015,0 hPa 0,0 l/m 0 min 0 min 0,0 UV-I 0 W/m 7,7 km/h (2 Bft)
24.06.2013 02:26 13,4 C 12,3 C 89 % 1015,0 hPa 0,0 l/m 0 min 0 min 0,0 UV-I 0 W/m 10,3 km/h (2 Bft)
24.06.2013 02:28 13,4 C 12,3 C 89 % 1015,0 hPa 0,0 l/m 0 min 0 min 0,0 UV-I 0 W/m 0,0 km/h (0 Bft)
24.06.2013 02:30 13,4 C 12,3 C 89 % 1015,0 hPa 0,0 l/m 0 min 0 min 0,0 UV-I 0 W/m 10,3 km/h (2 Bft)
24.06.2013 02:32 13,4 C 12,3 C 89 % 1015,0 hPa 0,0 l/m 0 min 0 min 0,0 UV-I 0 W/m 10,3 km/h (2 Bft)
24.06.2013 02:34 13,3 C 12,3 C 89 % 1015,1 hPa 0,0 l/m 0 min 0 min 0,0 UV-I 0 W/m 15,4 km/h (3 Bft)
24.06.2013 02:36 13,3 C 12,3 C 89 % 1015,0 hPa 0,0 l/m 0 min 2 min 0,0 UV-I 0 W/m 10,3 km/h (2 Bft)
24.06.2013 02:38 13,3 C 12,3 C 89 % 1015,0 hPa 0,0 l/m 0 min 2 min 0,0 UV-I 0 W/m 12,9 km/h (3 Bft)
24.06.2013 02:40 13,3 C 11,8 C 90 % 1015,0 hPa 0,0 l/m 0 min 2 min 0,0 UV-I 0 W/m 7,7 km/h (2 Bft)
24.06.2013 02:42 13,3 C 11,8 C 90 % 1015,0 hPa 0,0 l/m 0 min 2 min 0,0 UV-I 0 W/m 7,7 km/h (2 Bft)
24.06.2013 02:44 13,3 C 11,8 C 90 % 1015,1 hPa 0,0 l/m 0 min 2 min 0,0 UV-I 0 W/m 5,1 km/h (1 Bft)
24.06.2013 02:46 13,3 C 11,8 C 90 % 1015,1 hPa 0,0 l/m 0 min 2 min 0,0 UV-I 0 W/m 2,6 km/h (1 Bft)
24.06.2013 02:48 13,3 C 11,8 C 90 % 1015,2 hPa 0,0 l/m 0 min 2 min 0,0 UV-I 0 W/m 7,7 km/h (2 Bft)
24.06.2013 02:50 13,3 C 11,8 C 90 % 1015,1 hPa 0,0 l/m 0 min 0 min 0,0 UV-I 0 W/m 7,7 km/h (2 Bft)
24.06.2013 02:52 13,3 C 11,8 C 90 % 1015,1 hPa 0,0 l/m 0 min 2 min 0,0 UV-I 0 W/m 0,0 km/h (0 Bft)
24.06.2013 02:54 13,2 C 11,8 C 91 % 1015,1 hPa 0,2 l/m 0 min 2 min 0,0 UV-I 0 W/m 7,7 km/h (2 Bft)
24.06.2013 02:56 13,2 C 11,8 C 91 % 1015,1 hPa 0,0 l/m 0 min 2 min 0,0 UV-I 0 W/m 10,3 km/h (2 Bft)
24.06.2013 02:58 13,2 C 11,2 C 91 % 1015,0 hPa 0,0 l/m 0 min 2 min 0,0 UV-I 0 W/m 7,7 km/h (2 Bft)
24.06.2013 03:00 13,2 C 11,2 C 91 % 1015,1 hPa 0,0 l/m 0 min 0 min 0,0 UV-I 0 W/m 12,9 km/h (3 Bft)
24.06.2013 03:02 13,2 C 11,2 C 91 % 1015,0 hPa 0,0 l/m 0 min 0 min 0,0 UV-I 0 W/m 2,6 km/h (1 Bft)
24.06.2013 03:05 13,1 C 11,2 C 91 % 1015,1 hPa 0,0 l/m 0 min 0 min 0,0 UV-I 0 W/m 10,3 km/h (2 Bft)
24.06.2013 03:06 13,1 C 11,2 C 91 % 1015,0 hPa 0,0 l/m 0 min 0 min 0,0 UV-I 0 W/m 5,1 km/h (1 Bft)
24.06.2013 03:08 13,1 C 11,2 C 91 % 1015,0 hPa 0,0 l/m 0 min 0 min 0,0 UV-I 0 W/m 10,3 km/h (2 Bft)
24.06.2013 03:10 13,1 C 11,2 C 91 % 1015,0 hPa 0,0 l/m 0 min 0 min 0,0 UV-I 0 W/m 0,0 km/h (0 Bft)
24.06.2013 03:12 13,1 C 11,2 C 91 % 1015,0 hPa 0,0 l/m 0 min 0 min 0,0 UV-I 0 W/m 2,6 km/h (1 Bft)
24.06.2013 03:14 13,1 C 11,8 C 92 % 1015,0 hPa 0,0 l/m 0 min 0 min 0,0 UV-I 0 W/m 7,7 km/h (2 Bft)
24.06.2013 03:16 13,0 C 11,8 C 92 % 1014,9 hPa 0,0 l/m 0 min 0 min 0,0 UV-I 0 W/m 5,1 km/h (1 Bft)
24.06.2013 03:18 13,0 C 11,8 C 92 % 1015,0 hPa 0,0 l/m 0 min 0 min 0,0 UV-I 0 W/m 10,3 km/h (2 Bft)
24.06.2013 03:20 13,0 C 11,8 C 92 % 1015,0 hPa 0,0 l/m 0 min 0 min 0,0 UV-I 0 W/m 2,6 km/h (1 Bft)
24.06.2013 03:22 12,9 C 11,8 C 92 % 1015,0 hPa 0,0 l/m 0 min 0 min 0,0 UV-I 0 W/m 0,0 km/h (0 Bft)
24.06.2013 03:24 12,9 C 11,8 C 92 % 1014,9 hPa 0,0 l/m 0 min 0 min 0,0 UV-I 0 W/m 7,7 km/h (2 Bft)
24.06.2013 03:26 12,9 C 11,8 C 92 % 1015,0 hPa 0,0 l/m 0 min 0 min 0,0 UV-I 0 W/m 7,7 km/h (2 Bft)
24.06.2013 03:28 12,9 C 11,8 C 92 % 1015,0 hPa 0,0 l/m 0 min 0 min 0,0 UV-I 0 W/m 5,1 km/h (1 Bft)
24.06.2013 03:30 12,9 C 11,8 C 92 % 1015,0 hPa 0,0 l/m 0 min 0 min 0,0 UV-I 0 W/m 7,7 km/h (2 Bft)
24.06.2013 03:32 12,9 C 11,8 C 92 % 1015,0 hPa 0,0 l/m 0 min 0 min 0,0 UV-I 0 W/m 0,0 km/h (0 Bft)
24.06.2013 03:34 12,9 C 11,8 C 92 % 1015,0 hPa 0,0 l/m 0 min 0 min 0,0 UV-I 0 W/m 7,7 km/h (2 Bft)
24.06.2013 03:36 12,9 C 11,8 C 92 % 1015,1 hPa 0,0 l/m 0 min 0 min 0,0 UV-I 0 W/m 5,1 km/h (1 Bft)
24.06.2013 03:38 12,9 C 11,8 C 92 % 1015,1 hPa 0,0 l/m 0 min 0 min 0,0 UV-I 0 W/m 0,0 km/h (0 Bft)
24.06.2013 03:40 12,9 C 11,8 C 92 % 1015,1 hPa 0,0 l/m 0 min 0 min 0,0 UV-I 0 W/m 0,0 km/h (0 Bft)
24.06.2013 03:42 12,9 C 11,8 C 92 % 1015,2 hPa 0,0 l/m 0 min 0 min 0,0 UV-I 0 W/m 5,1 km/h (1 Bft)
24.06.2013 03:44 12,9 C 11,8 C 92 % 1015,2 hPa 0,0 l/m 0 min 0 min 0,0 UV-I 0 W/m 2,6 km/h (1 Bft)
24.06.2013 03:46 12,9 C 11,8 C 92 % 1015,1 hPa 0,0 l/m 0 min 0 min 0,0 UV-I 0 W/m 5,1 km/h (1 Bft)
24.06.2013 03:48 12,8 C 11,8 C 92 % 1015,1 hPa 0,0 l/m 0 min 0 min 0,0 UV-I 0 W/m 5,1 km/h (1 Bft)
24.06.2013 03:50 12,8 C 11,8 C 92 % 1015,2 hPa 0,0 l/m 0 min 0 min 0,0 UV-I 0 W/m 0,0 km/h (0 Bft)
24.06.2013 03:52 12,8 C 11,8 C 92 % 1015,1 hPa 0,0 l/m 0 min 0 min 0,0 UV-I 0 W/m 5,1 km/h (1 Bft)
24.06.2013 03:54 12,8 C 11,8 C 92 % 1015,2 hPa 0,0 l/m 0 min 0 min 0,0 UV-I 0 W/m 0,0 km/h (0 Bft)
24.06.2013 03:56 12,8 C 11,8 C 92 % 1015,2 hPa 0,0 l/m 0 min 0 min 0,0 UV-I 0 W/m 5,1 km/h (1 Bft)
24.06.2013 03:58 12,8 C 11,8 C 92 % 1015,2 hPa 0,0 l/m 0 min 0 min 0,0 UV-I 0 W/m 5,1 km/h (1 Bft)
24.06.2013 04:00 12,8 C 11,8 C 92 % 1015,2 hPa 0,0 l/m 0 min 0 min 0,0 UV-I 0 W/m 0,0 km/h (0 Bft)
24.06.2013 04:02 12,8 C 11,8 C 92 % 1015,3 hPa 0,0 l/m 0 min 0 min 0,0 UV-I 0 W/m 0,0 km/h (0 Bft)
24.06.2013 04:06 12,8 C 11,8 C 92 % 1015,3 hPa 0,0 l/m 0 min 0 min 0,0 UV-I 0 W/m 5,1 km/h (1 Bft)
24.06.2013 04:08 12,8 C 11,8 C 92 % 1015,3 hPa 0,0 l/m 0 min 0 min 0,0 UV-I 0 W/m 2,6 km/h (1 Bft)
24.06.2013 04:10 12,8 C 11,8 C 92 % 1015,3 hPa 0,0 l/m 0 min 0 min 0,0 UV-I 0 W/m 0,0 km/h (0 Bft)
24.06.2013 04:12 12,8 C 11,8 C 92 % 1015,3 hPa 0,0 l/m 0 min 0 min 0,0 UV-I 0 W/m 0,0 km/h (0 Bft)
24.06.2013 04:14 12,8 C 11,8 C 92 % 1015,3 hPa 0,0 l/m 0 min 0 min 0,0 UV-I 0 W/m 0,0 km/h (0 Bft)
24.06.2013 04:16 12,8 C 11,8 C 92 % 1015,3 hPa 0,0 l/m 0 min 0 min 0,0 UV-I 0 W/m 5,1 km/h (1 Bft)
24.06.2013 04:18 12,8 C 11,8 C 92 % 1015,3 hPa 0,0 l/m 0 min 0 min 0,0 UV-I 0 W/m 7,7 km/h (2 Bft)
24.06.2013 04:20 12,8 C 11,8 C 92 % 1015,3 hPa 0,0 l/m 0 min 0 min 0,0 UV-I 0 W/m 7,7 km/h (2 Bft)
24.06.2013 04:22 12,8 C 11,8 C 92 % 1015,3 hPa 0,0 l/m 0 min 0 min 0,0 UV-I 0 W/m 0,0 km/h (0 Bft)
24.06.2013 04:24 12,8 C 11,8 C 92 % 1015,3 hPa 0,0 l/m 0 min 0 min 0,0 UV-I 0 W/m 0,0 km/h (0 Bft)
24.06.2013 04:26 12,8 C 11,8 C 92 % 1015,3 hPa 0,0 l/m 0 min 0 min 0,0 UV-I 0 W/m 7,7 km/h (2 Bft)
24.06.2013 04:28 12,8 C 12,3 C 92 % 1015,4 hPa 0,0 l/m 0 min 0 min 0,0 UV-I 0 W/m 7,7 km/h (2 Bft)
24.06.2013 04:30 12,8 C 12,3 C 92 % 1015,4 hPa 0,0 l/m 0 min 0 min 0,0 UV-I 0 W/m 0,0 km/h (0 Bft)
24.06.2013 04:32 12,8 C 12,3 C 92 % 1015,3 hPa 0,0 l/m 0 min 0 min 0,0 UV-I 0 W/m 5,1 km/h (1 Bft)
24.06.2013 04:34 12,8 C 12,3 C 92 % 1015,4 hPa 0,0 l/m 0 min 0 min 0,0 UV-I 0 W/m 5,1 km/h (1 Bft)
24.06.2013 04:36 12,8 C 12,3 C 92 % 1015,5 hPa 0,0 l/m 0 min 0 min 0,0 UV-I 0 W/m 0,0 km/h (0 Bft)
24.06.2013 04:38 12,8 C 12,3 C 92 % 1015,5 hPa 0,0 l/m 0 min 0 min 0,0 UV-I 0 W/m 0,0 km/h (0 Bft)
24.06.2013 04:40 12,8 C 12,3 C 92 % 1015,5 hPa 0,0 l/m 0 min 0 min 0,0 UV-I 0 W/m 0,0 km/h (0 Bft)
24.06.2013 04:42 12,8 C 12,3 C 92 % 1015,5 hPa 0,0 l/m 0 min 0 min 0,0 UV-I 0 W/m 0,0 km/h (0 Bft)
24.06.2013 04:44 12,8 C 12,3 C 92 % 1015,6 hPa 0,0 l/m 0 min 0 min 0,0 UV-I 0 W/m 5,1 km/h (1 Bft)
24.06.2013 04:46 12,8 C 12,3 C 92 % 1015,7 hPa 0,0 l/m 0 min 0 min 0,0 UV-I 0 W/m 7,7 km/h (2 Bft)
24.06.2013 04:48 12,8 C 12,3 C 92 % 1015,7 hPa 0,0 l/m 0 min 0 min 0,0 UV-I 0 W/m 5,1 km/h (1 Bft)
24.06.2013 04:50 12,8 C 12,3 C 92 % 1015,7 hPa 0,0 l/m 0 min 0 min 0,0 UV-I 0 W/m 2,6 km/h (1 Bft)
24.06.2013 04:52 12,8 C 12,3 C 92 % 1015,7 hPa 0,0 l/m 0 min 0 min 0,0 UV-I 0 W/m 7,7 km/h (2 Bft)
24.06.2013 04:54 12,8 C 12,3 C 92 % 1015,7 hPa 0,0 l/m 0 min 0 min 0,0 UV-I 0 W/m 7,7 km/h (2 Bft)
24.06.2013 04:56 12,8 C 12,3 C 92 % 1015,7 hPa 0,0 l/m 0 min 0 min 0,0 UV-I 0 W/m 2,6 km/h (1 Bft)
24.06.2013 04:58 12,8 C 12,3 C 92 % 1015,7 hPa 0,0 l/m 0 min 0 min 0,0 UV-I 0 W/m 5,1 km/h (1 Bft)
24.06.2013 05:00 12,8 C 12,3 C 92 % 1015,7 hPa 0,0 l/m 0 min 0 min 0,0 UV-I 0 W/m 12,9 km/h (3 Bft)
24.06.2013 05:02 12,8 C 12,3 C 92 % 1015,7 hPa 0,0 l/m 0 min 0 min 0,0 UV-I 0 W/m 0,0 km/h (0 Bft)
24.06.2013 05:05 12,8 C 12,3 C 92 % 1015,8 hPa 0,0 l/m 0 min 0 min 0,0 UV-I 0 W/m 7,7 km/h (2 Bft)
24.06.2013 05:06 12,9 C 12,3 C 92 % 1015,8 hPa 0,0 l/m 0 min 0 min 0,0 UV-I 0 W/m 0,0 km/h (0 Bft)
24.06.2013 05:08 12,9 C 12,3 C 92 % 1015,8 hPa 0,0 l/m 0 min 0 min 0,0 UV-I 0 W/m 0,0 km/h (0 Bft)
24.06.2013 05:10 12,9 C 12,3 C 92 % 1015,9 hPa 0,0 l/m 0 min 0 min 0,0 UV-I 0 W/m 0,0 km/h (0 Bft)
24.06.2013 05:12 12,9 C 12,3 C 92 % 1015,9 hPa 0,0 l/m 0 min 0 min 0,0 UV-I 0 W/m 0,0 km/h (0 Bft)
24.06.2013 05:14 12,9 C 12,3 C 92 % 1016,0 hPa 0,0 l/m 0 min 0 min 0,0 UV-I 0 W/m 7,7 km/h (2 Bft)
24.06.2013 05:16 12,9 C 12,3 C 92 % 1015,9 hPa 0,0 l/m 0 min 0 min 0,0 UV-I 0 W/m 0,0 km/h (0 Bft)
24.06.2013 05:18 12,9 C 12,3 C 92 % 1015,9 hPa 0,0 l/m 0 min 0 min 0,0 UV-I 0 W/m 2,6 km/h (1 Bft)
24.06.2013 05:20 12,9 C 12,3 C 92 % 1015,9 hPa 0,0 l/m 0 min 0 min 0,0 UV-I 0 W/m 0,0 km/h (0 Bft)
24.06.2013 05:22 12,9 C 12,3 C 92 % 1015,9 hPa 0,0 l/m 0 min 0 min 0,0 UV-I 0 W/m 7,7 km/h (2 Bft)
24.06.2013 05:24 12,9 C 12,3 C 92 % 1015,9 hPa 0,0 l/m 0 min 0 min 0,0 UV-I 0 W/m 0,0 km/h (0 Bft)
24.06.2013 05:26 12,9 C 12,3 C 92 % 1015,9 hPa 0,0 l/m 0 min 0 min 0,0 UV-I 0 W/m 7,7 km/h (2 Bft)
24.06.2013 05:28 12,9 C 12,3 C 92 % 1016,0 hPa 0,0 l/m 0 min 0 min 0,0 UV-I 0 W/m 0,0 km/h (0 Bft)
24.06.2013 05:30 12,9 C 12,3 C 92 % 1016,1 hPa 0,0 l/m 0 min 0 min 0,0 UV-I 0 W/m 10,3 km/h (2 Bft)
24.06.2013 05:32 12,9 C 12,3 C 91 % 1016,1 hPa 0,0 l/m 0 min 0 min 0,0 UV-I 5 W/m 0,0 km/h (0 Bft)
24.06.2013 05:34 12,9 C 12,3 C 91 % 1016,1 hPa 0,0 l/m 0 min 0 min 0,0 UV-I 5 W/m 2,6 km/h (1 Bft)
24.06.2013 05:36 12,9 C 12,3 C 91 % 1016,0 hPa 0,0 l/m 0 min 0 min 0,0 UV-I 5 W/m 0,0 km/h (0 Bft)
24.06.2013 05:38 12,9 C 12,3 C 92 % 1016,1 hPa 0,0 l/m 0 min 0 min 0,0 UV-I 7 W/m 12,9 km/h (3 Bft)
24.06.2013 05:40 12,9 C 12,3 C 91 % 1016,1 hPa 0,0 l/m 0 min 0 min 0,0 UV-I 7 W/m 0,0 km/h (0 Bft)
24.06.2013 05:42 12,9 C 12,3 C 92 % 1016,1 hPa 0,0 l/m 0 min 0 min 0,0 UV-I 7 W/m 2,6 km/h (1 Bft)
24.06.2013 05:44 12,9 C 12,3 C 92 % 1016,1 hPa 0,0 l/m 0 min 0 min 0,0 UV-I 9 W/m 0,0 km/h (0 Bft)
24.06.2013 05:46 12,9 C 12,3 C 92 % 1016,1 hPa 0,0 l/m 0 min 0 min 0,0 UV-I 11 W/m 7,7 km/h (2 Bft)
24.06.2013 05:48 12,9 C 12,3 C 92 % 1016,2 hPa 0,0 l/m 0 min 0 min 0,0 UV-I 12 W/m 2,6 km/h (1 Bft)
24.06.2013 05:50 12,9 C 12,3 C 92 % 1016,2 hPa 0,0 l/m 0 min 0 min 0,0 UV-I 14 W/m 7,7 km/h (2 Bft)
24.06.2013 05:52 12,9 C 12,3 C 92 % 1016,2 hPa 0,0 l/m 0 min 0 min 0,0 UV-I 18 W/m 5,1 km/h (1 Bft)
24.06.2013 05:54 12,9 C 12,3 C 92 % 1016,2 hPa 0,0 l/m 0 min 0 min 0,0 UV-I 21 W/m 2,6 km/h (1 Bft)
24.06.2013 05:56 12,9 C 12,3 C 92 % 1016,2 hPa 0,0 l/m 0 min 0 min 0,0 UV-I 23 W/m 7,7 km/h (2 Bft)
24.06.2013 05:58 12,9 C 12,3 C 92 % 1016,2 hPa 0,0 l/m 0 min 0 min 0,0 UV-I 23 W/m 7,7 km/h (2 Bft)
24.06.2013 06:00 12,9 C 12,3 C 92 % 1016,3 hPa 0,0 l/m 0 min 0 min 0,0 UV-I 25 W/m 0,0 km/h (0 Bft)
24.06.2013 06:02 12,9 C 12,3 C 92 % 1016,2 hPa 0,0 l/m 0 min 0 min 0,0 UV-I 25 W/m 5,1 km/h (1 Bft)
24.06.2013 06:05 12,9 C 12,3 C 92 % 1016,3 hPa 0,0 l/m 0 min 0 min 0,0 UV-I 23 W/m 7,7 km/h (2 Bft)
24.06.2013 06:06 12,9 C 12,3 C 92 % 1016,3 hPa 0,0 l/m 0 min 0 min 0,0 UV-I 26 W/m 0,0 km/h (0 Bft)
24.06.2013 06:08 12,9 C 12,3 C 92 % 1016,3 hPa 0,0 l/m 0 min 0 min 0,0 UV-I 28 W/m 0,0 km/h (0 Bft)
24.06.2013 06:10 12,9 C 12,3 C 92 % 1016,3 hPa 0,0 l/m 0 min 0 min 0,0 UV-I 32 W/m 2,6 km/h (1 Bft)
24.06.2013 06:12 13,0 C 12,3 C 92 % 1016,3 hPa 0,0 l/m 0 min 0 min 0,0 UV-I 33 W/m 2,6 km/h (1 Bft)
24.06.2013 06:14 13,0 C 12,3 C 92 % 1016,3 hPa 0,0 l/m 0 min 0 min 0,0 UV-I 33 W/m 0,0 km/h (0 Bft)
24.06.2013 06:16 13,0 C 12,3 C 92 % 1016,3 hPa 0,0 l/m 0 min 0 min 0,0 UV-I 35 W/m 0,0 km/h (0 Bft)
24.06.2013 06:18 13,0 C 12,3 C 92 % 1016,3 hPa 0,0 l/m 0 min 2 min 0,0 UV-I 42 W/m 0,0 km/h (0 Bft)
24.06.2013 06:20 13,0 C 12,3 C 92 % 1016,4 hPa 0,0 l/m 0 min 2 min 0,0 UV-I 46 W/m 0,0 km/h (0 Bft)
24.06.2013 06:22 13,1 C 12,3 C 92 % 1016,4 hPa 0,0 l/m 0 min 2 min 0,0 UV-I 47 W/m 5,1 km/h (1 Bft)
24.06.2013 06:24 13,1 C 11,8 C 92 % 1016,3 hPa 0,0 l/m 0 min 2 min 0,0 UV-I 47 W/m 2,6 km/h (1 Bft)
24.06.2013 06:26 13,1 C 11,8 C 92 % 1016,3 hPa 0,0 l/m 0 min 2 min 0,0 UV-I 46 W/m 2,6 km/h (1 Bft)
24.06.2013 06:28 13,1 C 11,8 C 92 % 1016,3 hPa 0,0 l/m 0 min 2 min 0,0 UV-I 42 W/m 7,7 km/h (2 Bft)
24.06.2013 06:30 13,1 C 11,8 C 92 % 1016,4 hPa 0,0 l/m 0 min 2 min 0,0 UV-I 40 W/m 0,0 km/h (0 Bft)
24.06.2013 06:32 13,1 C 11,8 C 92 % 1016,4 hPa 0,0 l/m 0 min 2 min 0,0 UV-I 39 W/m 7,7 km/h (2 Bft)
24.06.2013 06:34 13,1 C 11,8 C 92 % 1016,4 hPa 0,0 l/m 0 min 2 min 0,0 UV-I 39 W/m 10,3 km/h (2 Bft)
24.06.2013 06:36 13,1 C 11,8 C 92 % 1016,5 hPa 0,0 l/m 0 min 2 min 0,0 UV-I 40 W/m 5,1 km/h (1 Bft)
24.06.2013 06:38 13,1 C 11,8 C 92 % 1016,5 hPa 0,0 l/m 0 min 2 min 0,0 UV-I 39 W/m 10,3 km/h (2 Bft)
24.06.2013 06:40 13,1 C 11,8 C 92 % 1016,5 hPa 0,0 l/m 0 min 0 min 0,0 UV-I 39 W/m 2,6 km/h (1 Bft)
24.06.2013 06:42 13,1 C 11,8 C 92 % 1016,5 hPa 0,0 l/m 0 min 0 min 0,0 UV-I 42 W/m 0,0 km/h (0 Bft)
24.06.2013 06:44 13,1 C 11,8 C 92 % 1016,5 hPa 0,0 l/m 0 min 0 min 0,0 UV-I 42 W/m 10,3 km/h (2 Bft)
24.06.2013 06:46 13,1 C 11,8 C 93 % 1016,5 hPa 0,0 l/m 0 min 2 min 0,0 UV-I 46 W/m 10,3 km/h (2 Bft)
24.06.2013 06:48 13,1 C 11,8 C 93 % 1016,5 hPa 0,0 l/m 0 min 2 min 0,0 UV-I 53 W/m 2,6 km/h (1 Bft)
24.06.2013 06:50 13,1 C 11,8 C 93 % 1016,5 hPa 0,0 l/m 0 min 2 min 0,0 UV-I 58 W/m 0,0 km/h (0 Bft)
24.06.2013 06:52 13,1 C 11,8 C 93 % 1016,6 hPa 0,0 l/m 0 min 2 min 0,0 UV-I 65 W/m 0,0 km/h (0 Bft)
24.06.2013 06:54 13,1 C 11,8 C 93 % 1016,6 hPa 0,0 l/m 0 min 0 min 0,0 UV-I 67 W/m 0,0 km/h (0 Bft)
24.06.2013 06:56 13,1 C 11,8 C 93 % 1016,6 hPa 0,0 l/m 0 min 0 min 0,0 UV-I 77 W/m 5,1 km/h (1 Bft)
24.06.2013 06:58 13,1 C 11,8 C 93 % 1016,6 hPa 0,0 l/m 0 min 0 min 0,0 UV-I 90 W/m 0,0 km/h (0 Bft)
24.06.2013 07:00 13,2 C 12,3 C 93 % 1016,7 hPa 0,0 l/m 0 min 0 min 0,0 UV-I 72 W/m 15,4 km/h (3 Bft)
24.06.2013 07:02 13,2 C 12,3 C 93 % 1016,6 hPa 0,0 l/m 0 min 0 min 0,0 UV-I 86 W/m 5,1 km/h (1 Bft)
24.06.2013 07:06 13,2 C 11,8 C 93 % 1016,7 hPa 0,0 l/m 0 min 0 min 0,0 UV-I 107 W/m 10,3 km/h (2 Bft)
24.06.2013 07:08 13,2 C 12,3 C 93 % 1016,7 hPa 0,0 l/m 0 min 0 min 0,0 UV-I 114 W/m 5,1 km/h (1 Bft)
24.06.2013 07:10 13,2 C 12,3 C 93 % 1016,6 hPa 0,0 l/m 0 min 2 min 0,0 UV-I 100 W/m 5,1 km/h (1 Bft)
24.06.2013 07:12 13,2 C 12,3 C 93 % 1016,6 hPa 0,0 l/m 0 min 2 min 0,0 UV-I 83 W/m 0,0 km/h (0 Bft)
24.06.2013 07:14 13,3 C 12,3 C 93 % 1016,6 hPa 0,0 l/m 0 min 2 min 0,0 UV-I 70 W/m 0,0 km/h (0 Bft)
24.06.2013 07:16 13,3 C 11,8 C 93 % 1016,6 hPa 0,0 l/m 0 min 0 min 0,0 UV-I 56 W/m 7,7 km/h (2 Bft)
24.06.2013 07:18 13,3 C 11,8 C 93 % 1016,7 hPa 0,0 l/m 0 min 0 min 0,0 UV-I 51 W/m 0,0 km/h (0 Bft)
24.06.2013 07:20 13,3 C 11,8 C 93 % 1016,7 hPa 0,0 l/m 0 min 0 min 0,0 UV-I 44 W/m 2,6 km/h (1 Bft)
24.06.2013 07:22 13,3 C 11,8 C 93 % 1016,7 hPa 0,0 l/m 0 min 0 min 0,0 UV-I 47 W/m 7,7 km/h (2 Bft)
24.06.2013 07:24 13,3 C 11,8 C 93 % 1016,7 hPa 0,0 l/m 0 min 0 min 0,0 UV-I 67 W/m 5,1 km/h (1 Bft)
24.06.2013 07:26 13,3 C 11,8 C 93 % 1016,7 hPa 0,0 l/m 0 min 0 min 0,0 UV-I 93 W/m 2,6 km/h (1 Bft)
24.06.2013 07:28 13,3 C 11,8 C 93 % 1016,8 hPa 0,0 l/m 0 min 0 min 0,0 UV-I 91 W/m 7,7 km/h (2 Bft)
24.06.2013 07:30 13,3 C 11,8 C 93 % 1016,7 hPa 0,0 l/m 0 min 0 min 0,0 UV-I 93 W/m 5,1 km/h (1 Bft)
24.06.2013 07:32 13,3 C 11,8 C 93 % 1016,8 hPa 0,0 l/m 0 min 0 min 0,0 UV-I 116 W/m 5,1 km/h (1 Bft)
24.06.2013 07:34 13,3 C 11,8 C 93 % 1016,8 hPa 0,0 l/m 0 min 0 min 0,0 UV-I 118 W/m 7,7 km/h (2 Bft)
24.06.2013 07:36 13,3 C 11,8 C 93 % 1016,8 hPa 0,0 l/m 0 min 0 min 0,0 UV-I 111 W/m 5,1 km/h (1 Bft)
24.06.2013 07:38 13,3 C 11,8 C 93 % 1016,8 hPa 0,0 l/m 0 min 0 min 0,0 UV-I 90 W/m 12,9 km/h (3 Bft)
24.06.2013 07:40 13,3 C 12,3 C 93 % 1016,8 hPa 0,0 l/m 0 min 0 min 0,0 UV-I 114 W/m 7,7 km/h (2 Bft)
24.06.2013 07:42 13,3 C 12,3 C 93 % 1016,9 hPa 0,0 l/m 0 min 0 min 0,0 UV-I 142 W/m 12,9 km/h (3 Bft)
24.06.2013 07:44 13,3 C 12,3 C 93 % 1016,8 hPa 0,0 l/m 0 min 0 min 0,0 UV-I 142 W/m 7,7 km/h (2 Bft)
24.06.2013 07:46 13,3 C 12,9 C 93 % 1016,9 hPa 0,0 l/m 0 min 0 min 0,0 UV-I 176 W/m 10,3 km/h (2 Bft)
24.06.2013 07:48 13,4 C 12,9 C 93 % 1016,8 hPa 0,0 l/m 0 min 0 min 0,0 UV-I 178 W/m 2,6 km/h (1 Bft)
24.06.2013 07:50 13,4 C 12,9 C 93 % 1016,8 hPa 0,0 l/m 2 min 0 min 0,0 UV-I 199 W/m 10,3 km/h (2 Bft)
24.06.2013 07:52 13,4 C 13,4 C 93 % 1016,8 hPa 0,0 l/m 2 min 0 min 0,0 UV-I 199 W/m 7,7 km/h (2 Bft)
24.06.2013 07:54 13,5 C 13,4 C 93 % 1016,8 hPa 0,0 l/m 2 min 0 min 0,0 UV-I 209 W/m 12,9 km/h (3 Bft)
24.06.2013 07:56 13,6 C 13,4 C 93 % 1016,9 hPa 0,0 l/m 0 min 0 min 0,0 UV-I 172 W/m 10,3 km/h (2 Bft)
24.06.2013 07:58 13,6 C 13,4 C 93 % 1016,8 hPa 0,0 l/m 0 min 0 min 0,0 UV-I 120 W/m 7,7 km/h (2 Bft)
24.06.2013 08:00 13,7 C 13,4 C 92 % 1016,9 hPa 0,0 l/m 0 min 0 min 0,0 UV-I 97 W/m 15,4 km/h (3 Bft)
24.06.2013 08:02 13,7 C 13,4 C 92 % 1016,9 hPa 0,0 l/m 0 min 0 min 0,0 UV-I 93 W/m 5,1 km/h (1 Bft)
24.06.2013 08:06 13,8 C 13,4 C 92 % 1016,9 hPa 0,0 l/m 0 min 0 min 0,0 UV-I 160 W/m 10,3 km/h (2 Bft)
24.06.2013 08:08 13,8 C 13,4 C 91 % 1016,9 hPa 0,0 l/m 0 min 0 min 0,0 UV-I 172 W/m 12,9 km/h (3 Bft)
24.06.2013 08:10 13,8 C 13,4 C 91 % 1016,9 hPa 0,0 l/m 0 min 0 min 0,0 UV-I 158 W/m 5,1 km/h (1 Bft)
24.06.2013 08:12 13,8 C 13,4 C 91 % 1016,9 hPa 0,0 l/m 0 min 0 min 0,0 UV-I 142 W/m 2,6 km/h (1 Bft)
24.06.2013 08:14 13,8 C 13,4 C 90 % 1017,0 hPa 0,0 l/m 0 min 0 min 0,0 UV-I 162 W/m 15,4 km/h (3 Bft)
24.06.2013 08:16 13,8 C 13,4 C 90 % 1017,0 hPa 0,0 l/m 2 min 0 min 0,0 UV-I 221 W/m 7,7 km/h (2 Bft)
24.06.2013 08:18 13,9 C 13,4 C 90 % 1017,0 hPa 0,0 l/m 0 min 0 min 0,0 UV-I 165 W/m 18,0 km/h (3 Bft)
24.06.2013 08:20 13,9 C 13,4 C 90 % 1017,0 hPa 0,0 l/m 0 min 0 min 0,0 UV-I 156 W/m 12,9 km/h (3 Bft)
24.06.2013 08:22 14,0 C 13,4 C 90 % 1017,1 hPa 0,0 l/m 2 min 0 min 0,0 UV-I 413 W/m 10,3 km/h (2 Bft)
24.06.2013 08:24 14,0 C 14,0 C 89 % 1017,0 hPa 0,0 l/m 0 min 0 min 0,0 UV-I 206 W/m 15,4 km/h (3 Bft)
24.06.2013 08:26 14,0 C 14,0 C 89 % 1017,1 hPa 0,0 l/m 2 min 0 min 0,0 UV-I 237 W/m 10,3 km/h (2 Bft)
24.06.2013 08:28 14,0 C 14,0 C 89 % 1017,1 hPa 0,0 l/m 2 min 0 min 0,0 UV-I 308 W/m 12,9 km/h (3 Bft)
24.06.2013 08:30 14,0 C 14,0 C 89 % 1017,1 hPa 0,0 l/m 0 min 0 min 0,0 UV-I 211 W/m 10,3 km/h (2 Bft)
24.06.2013 08:32 14,1 C 14,0 C 89 % 1017,1 hPa 0,0 l/m 0 min 0 min 0,0 UV-I 132 W/m 7,7 km/h (2 Bft)
24.06.2013 08:34 14,2 C 14,0 C 89 % 1017,2 hPa 0,0 l/m 0 min 0 min 0,0 UV-I 188 W/m 15,4 km/h (3 Bft)
24.06.2013 08:36 14,2 C 14,0 C 89 % 1017,1 hPa 0,0 l/m 0 min 0 min 0,5 UV-I 188 W/m 15,4 km/h (3 Bft)
24.06.2013 08:38 14,2 C 14,0 C 89 % 1017,2 hPa 0,0 l/m 0 min 0 min 0,0 UV-I 207 W/m 15,4 km/h (3 Bft)
24.06.2013 08:40 14,3 C 14,0 C 88 % 1017,2 hPa 0,0 l/m 0 min 0 min 0,0 UV-I 118 W/m 12,9 km/h (3 Bft)
24.06.2013 08:42 14,3 C 13,4 C 87 % 1017,3 hPa 0,0 l/m 0 min 0 min 0,0 UV-I 125 W/m 10,3 km/h (2 Bft)
24.06.2013 08:44 14,3 C 13,4 C 87 % 1017,2 hPa 0,0 l/m 0 min 0 min 0,0 UV-I 229 W/m 5,1 km/h (1 Bft)
24.06.2013 08:46 14,3 C 13,4 C 87 % 1017,3 hPa 0,0 l/m 2 min 0 min 0,7 UV-I 448 W/m 10,3 km/h (2 Bft)
24.06.2013 08:48 14,4 C 13,4 C 87 % 1017,3 hPa 0,0 l/m 2 min 0 min 0,6 UV-I 432 W/m 10,3 km/h (2 Bft)
24.06.2013 08:50 14,4 C 13,4 C 87 % 1017,4 hPa 0,0 l/m 2 min 0 min 0,7 UV-I 387 W/m 7,7 km/h (2 Bft)
24.06.2013 08:52 14,5 C 13,4 C 87 % 1017,4 hPa 0,0 l/m 2 min 0 min 0,7 UV-I 462 W/m 12,9 km/h (3 Bft)
24.06.2013 08:54 14,6 C 14,0 C 86 % 1017,4 hPa 0,0 l/m 2 min 0 min 0,8 UV-I 510 W/m 7,7 km/h (2 Bft)
24.06.2013 08:56 14,7 C 14,0 C 86 % 1017,5 hPa 0,0 l/m 2 min 0 min 0,5 UV-I 506 W/m 7,7 km/h (2 Bft)
24.06.2013 08:58 14,8 C 14,0 C 85 % 1017,5 hPa 0,0 l/m 0 min 0 min 0,0 UV-I 253 W/m 20,6 km/h (4 Bft)
24.06.2013 09:00 14,9 C 14,0 C 85 % 1017,6 hPa 0,0 l/m 2 min 0 min 0,8 UV-I 504 W/m 2,6 km/h (1 Bft)
24.06.2013 09:02 15,0 C 14,6 C 85 % 1017,5 hPa 0,0 l/m 2 min 0 min 0,9 UV-I 490 W/m 15,4 km/h (3 Bft)
24.06.2013 09:05 15,2 C 14,6 C 84 % 1017,5 hPa 0,0 l/m 2 min 0 min 0,9 UV-I 543 W/m 15,4 km/h (3 Bft)
24.06.2013 09:06 15,2 C 14,6 C 84 % 1017,5 hPa 0,0 l/m 1 min 0 min 0,5 UV-I 543 W/m 15,4 km/h (3 Bft)
24.06.2013 09:08 15,3 C 15,1 C 83 % 1017,5 hPa 0,0 l/m 2 min 0 min 0,9 UV-I 536 W/m 12,9 km/h (3 Bft)
24.06.2013 09:10 15,4 C 15,1 C 82 % 1017,4 hPa 0,0 l/m 2 min 0 min 0,0 UV-I 536 W/m 10,3 km/h (2 Bft)
24.06.2013 09:12 15,6 C 15,1 C 82 % 1017,5 hPa 0,0 l/m 0 min 0 min 1,1 UV-I 269 W/m 10,3 km/h (2 Bft)
24.06.2013 09:14 15,6 C 15,7 C 82 % 1017,4 hPa 0,0 l/m 2 min 0 min 1,0 UV-I 621 W/m 10,3 km/h (2 Bft)
24.06.2013 09:16 15,7 C 15,7 C 81 % 1017,5 hPa 0,0 l/m 0 min 0 min 0,8 UV-I 239 W/m 12,9 km/h (3 Bft)
24.06.2013 09:18 15,7 C 15,1 C 80 % 1017,5 hPa 0,0 l/m 0 min 0 min 0,8 UV-I 239 W/m 20,6 km/h (4 Bft)
24.06.2013 09:20 15,8 C 15,1 C 80 % 1017,5 hPa 0,0 l/m 2 min 0 min 1,2 UV-I 617 W/m 10,3 km/h (2 Bft)
24.06.2013 09:22 15,9 C 15,7 C 81 % 1017,5 hPa 0,0 l/m 2 min 0 min 0,7 UV-I 612 W/m 2,6 km/h (1 Bft)
24.06.2013 09:24 16,0 C 15,1 C 81 % 1017,5 hPa 0,0 l/m 2 min 0 min 1,0 UV-I 612 W/m 10,3 km/h (2 Bft)
24.06.2013 09:26 16,1 C 15,7 C 80 % 1017,4 hPa 0,0 l/m 2 min 0 min 0,9 UV-I 615 W/m 12,9 km/h (3 Bft)
24.06.2013 09:28 16,2 C 15,7 C 80 % 1017,4 hPa 0,0 l/m 2 min 0 min 1,3 UV-I 615 W/m 18,0 km/h (3 Bft)
24.06.2013 09:30 16,3 C 15,7 C 79 % 1017,4 hPa 0,0 l/m 2 min 0 min 1,4 UV-I 650 W/m 7,7 km/h (2 Bft)
24.06.2013 09:32 16,3 C 16,2 C 78 % 1017,5 hPa 0,0 l/m 2 min 0 min 0,0 UV-I 682 W/m 12,9 km/h (3 Bft)
24.06.2013 09:34 16,4 C 15,7 C 77 % 1017,5 hPa 0,0 l/m 0 min 0 min 0,0 UV-I 199 W/m 12,9 km/h (3 Bft)
24.06.2013 09:36 16,4 C 15,1 C 76 % 1017,5 hPa 0,0 l/m 0 min 0 min 0,0 UV-I 123 W/m 10,3 km/h (2 Bft)
24.06.2013 09:38 16,3 C 15,1 C 77 % 1017,6 hPa 0,0 l/m 0 min 0 min 0,0 UV-I 162 W/m 10,3 km/h (2 Bft)
24.06.2013 09:40 16,3 C 15,1 C 77 % 1017,5 hPa 0,0 l/m 0 min 0 min 0,7 UV-I 229 W/m 25,7 km/h (4 Bft)
24.06.2013 09:42 16,2 C 15,1 C 77 % 1017,5 hPa 0,0 l/m 2 min 0 min 1,5 UV-I 664 W/m 15,4 km/h (3 Bft)
24.06.2013 09:44 16,2 C 15,7 C 77 % 1017,6 hPa 0,0 l/m 0 min 0 min 1,3 UV-I 313 W/m 15,4 km/h (3 Bft)
24.06.2013 09:46 16,2 C 15,7 C 77 % 1017,5 hPa 0,0 l/m 0 min 0 min 1,6 UV-I 313 W/m 15,4 km/h (3 Bft)
24.06.2013 09:48 16,3 C 16,2 C 77 % 1017,6 hPa 0,0 l/m 0 min 0 min 1,2 UV-I 313 W/m 5,1 km/h (1 Bft)
24.06.2013 09:50 16,3 C 15,7 C 77 % 1017,6 hPa 0,0 l/m 0 min 0 min 0,0 UV-I 230 W/m 20,6 km/h (4 Bft)
24.06.2013 09:52 16,3 C 15,7 C 76 % 1017,6 hPa 0,0 l/m 0 min 0 min 0,5 UV-I 199 W/m 20,6 km/h (4 Bft)
24.06.2013 09:54 16,2 C 15,1 C 76 % 1017,5 hPa 0,0 l/m 0 min 0 min 0,6 UV-I 155 W/m 12,9 km/h (3 Bft)
24.06.2013 09:56 16,2 C 15,1 C 76 % 1017,5 hPa 0,0 l/m 0 min 0 min 1,7 UV-I 162 W/m 5,1 km/h (1 Bft)
24.06.2013 09:58 16,2 C 15,7 C 77 % 1017,6 hPa 0,0 l/m 2 min 0 min 2,0 UV-I 608 W/m 18,0 km/h (3 Bft)
24.06.2013 10:00 16,2 C 16,8 C 77 % 1017,6 hPa 0,0 l/m 2 min 0 min 2,0 UV-I 691 W/m 7,7 km/h (2 Bft)
24.06.2013 10:02 16,3 C 18,4 C 77 % 1017,6 hPa 0,0 l/m 2 min 0 min 1,3 UV-I 691 W/m 18,0 km/h (3 Bft)
24.06.2013 10:05 16,4 C 19,0 C 78 % 1017,8 hPa 0,0 l/m 2 min 0 min 2,1 UV-I 838 W/m 12,9 km/h (3 Bft)
24.06.2013 10:06 16,4 C 18,4 C 77 % 1017,8 hPa 0,0 l/m 0 min 0 min 0,5 UV-I 214 W/m 18,0 km/h (3 Bft)
24.06.2013 10:08 16,5 C 17,3 C 76 % 1017,6 hPa 0,0 l/m 0 min 0 min 0,0 UV-I 139 W/m 10,3 km/h (2 Bft)
24.06.2013 10:10 16,4 C 16,2 C 75 % 1017,8 hPa 0,0 l/m 0 min 0 min 0,0 UV-I 93 W/m 20,6 km/h (4 Bft)
24.06.2013 10:12 16,4 C 15,7 C 75 % 1017,8 hPa 0,0 l/m 0 min 0 min 0,0 UV-I 58 W/m 7,7 km/h (2 Bft)
24.06.2013 10:14 16,3 C 14,6 C 74 % 1017,9 hPa 0,0 l/m 0 min 0 min 0,0 UV-I 47 W/m 10,3 km/h (2 Bft)
24.06.2013 10:16 16,3 C 14,6 C 75 % 1017,9 hPa 0,0 l/m 0 min 0 min 0,0 UV-I 46 W/m 7,7 km/h (2 Bft)
24.06.2013 10:18 16,3 C 14,6 C 75 % 1017,9 hPa 0,0 l/m 0 min 0 min 0,0 UV-I 51 W/m 2,6 km/h (1 Bft)
24.06.2013 10:20 16,2 C 14,6 C 76 % 1017,9 hPa 0,0 l/m 0 min 0 min 0,0 UV-I 60 W/m 2,6 km/h (1 Bft)
24.06.2013 10:22 16,1 C 14,6 C 76 % 1018,0 hPa 0,0 l/m 0 min 0 min 0,0 UV-I 84 W/m 15,4 km/h (3 Bft)
24.06.2013 10:24 16,1 C 14,6 C 77 % 1018,0 hPa 0,0 l/m 0 min 0 min 0,0 UV-I 158 W/m 15,4 km/h (3 Bft)
24.06.2013 10:26 15,9 C 14,6 C 77 % 1017,9 hPa 0,0 l/m 0 min 0 min 0,6 UV-I 214 W/m 12,9 km/h (3 Bft)
24.06.2013 10:28 15,9 C 15,1 C 78 % 1018,0 hPa 0,0 l/m 0 min 0 min 0,0 UV-I 190 W/m 0,0 km/h (0 Bft)
24.06.2013 10:30 15,8 C 15,1 C 78 % 1017,9 hPa 0,0 l/m 0 min 0 min 0,0 UV-I 181 W/m 5,1 km/h (1 Bft)
24.06.2013 10:32 15,8 C 15,1 C 78 % 1017,9 hPa 0,0 l/m 0 min 0 min 0,6 UV-I 225 W/m 12,9 km/h (3 Bft)
24.06.2013 10:34 15,8 C 15,1 C 77 % 1018,1 hPa 0,0 l/m 0 min 0 min 0,9 UV-I 244 W/m 18,0 km/h (3 Bft)
24.06.2013 10:36 15,7 C 15,7 C 77 % 1018,2 hPa 0,0 l/m 0 min 0 min 1,0 UV-I 255 W/m 7,7 km/h (2 Bft)
24.06.2013 10:38 15,7 C 15,7 C 78 % 1018,1 hPa 0,0 l/m 0 min 0 min 0,9 UV-I 251 W/m 7,7 km/h (2 Bft)
24.06.2013 10:40 15,7 C 15,7 C 77 % 1018,1 hPa 0,0 l/m 0 min 0 min 0,8 UV-I 243 W/m 15,4 km/h (3 Bft)
24.06.2013 10:42 15,7 C 15,7 C 77 % 1018,3 hPa 0,0 l/m 0 min 0 min 0,5 UV-I 200 W/m 12,9 km/h (3 Bft)
24.06.2013 10:44 15,7 C 15,1 C 76 % 1018,3 hPa 0,0 l/m 0 min 0 min 0,0 UV-I 165 W/m 15,4 km/h (3 Bft)
24.06.2013 10:46 15,7 C 15,1 C 76 % 1018,2 hPa 0,0 l/m 0 min 0 min 0,0 UV-I 128 W/m 7,7 km/h (2 Bft)
24.06.2013 10:48 15,7 C 14,6 C 76 % 1018,3 hPa 0,0 l/m 0 min 0 min 0,0 UV-I 104 W/m 10,3 km/h (2 Bft)
24.06.2013 10:50 15,6 C 14,6 C 76 % 1018,3 hPa 0,0 l/m 0 min 0 min 0,0 UV-I 125 W/m 18,0 km/h (3 Bft)
24.06.2013 10:52 15,6 C 14,6 C 75 % 1018,3 hPa 0,0 l/m 0 min 0 min 0,0 UV-I 156 W/m 23,2 km/h (4 Bft)
24.06.2013 10:54 15,5 C 14,6 C 76 % 1018,3 hPa 0,0 l/m 0 min 0 min 0,6 UV-I 195 W/m 12,9 km/h (3 Bft)
24.06.2013 10:56 15,4 C 15,1 C 76 % 1018,4 hPa 0,0 l/m 0 min 0 min 0,6 UV-I 204 W/m 7,7 km/h (2 Bft)
24.06.2013 10:58 15,4 C 15,1 C 77 % 1018,3 hPa 0,0 l/m 0 min 0 min 0,6 UV-I 202 W/m 7,7 km/h (2 Bft)
24.06.2013 11:00 15,4 C 15,1 C 77 % 1018,3 hPa 0,0 l/m 0 min 0 min 0,7 UV-I 209 W/m 10,3 km/h (2 Bft)
24.06.2013 11:02 15,4 C 15,1 C 77 % 1018,4 hPa 0,0 l/m 0 min 0 min 0,7 UV-I 216 W/m 10,3 km/h (2 Bft)
24.06.2013 11:06 15,4 C 15,1 C 77 % 1018,4 hPa 0,0 l/m 0 min 0 min 0,5 UV-I 179 W/m 15,4 km/h (3 Bft)
24.06.2013 11:08 15,5 C 15,1 C 77 % 1018,5 hPa 0,0 l/m 0 min 0 min 0,5 UV-I 181 W/m 10,3 km/h (2 Bft)
24.06.2013 11:10 15,4 C 15,1 C 77 % 1018,5 hPa 0,0 l/m 0 min 0 min 0,5 UV-I 185 W/m 10,3 km/h (2 Bft)
24.06.2013 11:12 15,4 C 15,1 C 77 % 1018,6 hPa 0,0 l/m 0 min 0 min 0,6 UV-I 202 W/m 10,3 km/h (2 Bft)
24.06.2013 11:14 15,4 C 15,1 C 78 % 1018,7 hPa 0,0 l/m 0 min 0 min 0,6 UV-I 200 W/m 15,4 km/h (3 Bft)
24.06.2013 11:16 15,4 C 15,1 C 77 % 1018,7 hPa 0,0 l/m 0 min 0 min 0,5 UV-I 183 W/m 15,4 km/h (3 Bft)
24.06.2013 11:18 15,4 C 15,1 C 77 % 1018,7 hPa 0,0 l/m 0 min 0 min 0,0 UV-I 169 W/m 10,3 km/h (2 Bft)
24.06.2013 11:20 15,4 C 14,6 C 77 % 1018,7 hPa 0,0 l/m 0 min 0 min 0,0 UV-I 156 W/m 15,4 km/h (3 Bft)
24.06.2013 11:22 15,4 C 14,6 C 77 % 1018,7 hPa 0,0 l/m 0 min 0 min 0,0 UV-I 155 W/m 23,2 km/h (4 Bft)
24.06.2013 11:24 15,3 C 14,6 C 77 % 1018,7 hPa 0,0 l/m 0 min 0 min 0,0 UV-I 163 W/m 12,9 km/h (3 Bft)
24.06.2013 11:26 15,3 C 14,6 C 77 % 1018,8 hPa 0,0 l/m 0 min 0 min 0,0 UV-I 171 W/m 18,0 km/h (3 Bft)
24.06.2013 11:28 15,3 C 14,6 C 77 % 1018,8 hPa 0,0 l/m 0 min 0 min 0,5 UV-I 181 W/m 18,0 km/h (3 Bft)
24.06.2013 11:30 15,2 C 14,6 C 78 % 1018,8 hPa 0,0 l/m 0 min 0 min 0,7 UV-I 202 W/m 12,9 km/h (3 Bft)
24.06.2013 11:32 15,2 C 14,6 C 77 % 1018,8 hPa 0,0 l/m 0 min 0 min 0,8 UV-I 216 W/m 10,3 km/h (2 Bft)
24.06.2013 11:34 15,2 C 15,1 C 78 % 1018,9 hPa 0,0 l/m 0 min 0 min 0,9 UV-I 236 W/m 12,9 km/h (3 Bft)
24.06.2013 11:36 15,2 C 15,1 C 78 % 1018,9 hPa 0,0 l/m 0 min 0 min 0,9 UV-I 239 W/m 10,3 km/h (2 Bft)
24.06.2013 11:38 15,2 C 15,1 C 79 % 1018,9 hPa 0,0 l/m 0 min 0 min 1,0 UV-I 246 W/m 10,3 km/h (2 Bft)
24.06.2013 11:40 15,2 C 15,1 C 79 % 1018,8 hPa 0,0 l/m 0 min 0 min 0,9 UV-I 241 W/m 0,0 km/h (0 Bft)
24.06.2013 11:42 15,2 C 15,1 C 79 % 1018,9 hPa 0,0 l/m 0 min 0 min 0,9 UV-I 227 W/m 10,3 km/h (2 Bft)
24.06.2013 11:44 15,2 C 15,1 C 79 % 1018,9 hPa 0,0 l/m 0 min 0 min 1,2 UV-I 255 W/m 12,9 km/h (3 Bft)
24.06.2013 11:46 15,2 C 15,7 C 79 % 1018,9 hPa 0,0 l/m 0 min 0 min 1,3 UV-I 290 W/m 12,9 km/h (3 Bft)
24.06.2013 11:48 15,3 C 15,7 C 79 % 1018,9 hPa 0,0 l/m 0 min 0 min 1,2 UV-I 281 W/m 12,9 km/h (3 Bft)
24.06.2013 11:50 15,3 C 15,7 C 79 % 1019,0 hPa 0,0 l/m 0 min 0 min 1,2 UV-I 271 W/m 10,3 km/h (2 Bft)
24.06.2013 11:52 15,3 C 15,7 C 79 % 1019,0 hPa 0,0 l/m 0 min 0 min 1,2 UV-I 278 W/m 5,1 km/h (1 Bft)
24.06.2013 11:54 15,3 C 15,7 C 79 % 1019,1 hPa 0,0 l/m 0 min 0 min 1,4 UV-I 297 W/m 15,4 km/h (3 Bft)
24.06.2013 11:56 15,3 C 15,7 C 79 % 1019,0 hPa 0,0 l/m 0 min 0 min 1,4 UV-I 304 W/m 15,4 km/h (3 Bft)
24.06.2013 11:58 15,3 C 15,7 C 79 % 1019,0 hPa 0,0 l/m 0 min 0 min 1,6 UV-I 322 W/m 5,1 km/h (1 Bft)
24.06.2013 12:00 15,4 C 15,7 C 79 % 1019,1 hPa 0,0 l/m 0 min 0 min 1,8 UV-I 353 W/m 12,9 km/h (3 Bft)
24.06.2013 12:02 15,4 C 16,2 C 80 % 1019,0 hPa 0,0 l/m 0 min 0 min 2,0 UV-I 373 W/m 0,0 km/h (0 Bft)
24.06.2013 12:06 15,5 C 16,2 C 79 % 1019,1 hPa 0,0 l/m 0 min 0 min 2,1 UV-I 401 W/m 15,4 km/h (3 Bft)
24.06.2013 12:08 15,4 C 16,8 C 78 % 1019,0 hPa 0,0 l/m 0 min 0 min 2,1 UV-I 406 W/m 12,9 km/h (3 Bft)
24.06.2013 12:10 15,6 C 16,8 C 80 % 1019,1 hPa 0,0 l/m 0 min 0 min 2,0 UV-I 401 W/m 10,3 km/h (2 Bft)
24.06.2013 12:12 15,7 C 16,8 C 79 % 1019,2 hPa 0,0 l/m 0 min 0 min 1,8 UV-I 376 W/m 20,6 km/h (4 Bft)
24.06.2013 12:14 15,6 C 16,8 C 79 % 1019,2 hPa 0,2 l/m 0 min 0 min 1,3 UV-I 320 W/m 12,9 km/h (3 Bft)
24.06.2013 12:16 15,7 C 16,8 C 79 % 1019,2 hPa 0,0 l/m 0 min 2 min 0,9 UV-I 229 W/m 7,7 km/h (2 Bft)
24.06.2013 12:18 15,6 C 16,2 C 79 % 1019,2 hPa 0,0 l/m 0 min 0 min 1,0 UV-I 234 W/m 7,7 km/h (2 Bft)
24.06.2013 12:20 15,4 C 15,7 C 78 % 1019,2 hPa 0,0 l/m 0 min 0 min 1,2 UV-I 264 W/m 18,0 km/h (3 Bft)
24.06.2013 12:22 15,3 C 15,7 C 79 % 1019,3 hPa 0,0 l/m 0 min 0 min 1,1 UV-I 248 W/m 15,4 km/h (3 Bft)
24.06.2013 12:24 15,3 C 15,7 C 79 % 1019,3 hPa 0,0 l/m 0 min 0 min 1,1 UV-I 257 W/m 7,7 km/h (2 Bft)
24.06.2013 12:26 15,2 C 15,7 C 80 % 1019,3 hPa 0,0 l/m 0 min 0 min 1,2 UV-I 269 W/m 10,3 km/h (2 Bft)
24.06.2013 12:28 15,2 C 15,7 C 80 % 1019,3 hPa 0,0 l/m 0 min 0 min 1,3 UV-I 281 W/m 18,0 km/h (3 Bft)
24.06.2013 12:30 15,1 C 15,7 C 80 % 1019,4 hPa 0,0 l/m 0 min 0 min 1,3 UV-I 278 W/m 18,0 km/h (3 Bft)
24.06.2013 12:32 15,1 C 15,7 C 81 % 1019,4 hPa 0,0 l/m 0 min 0 min 1,3 UV-I 279 W/m 15,4 km/h (3 Bft)
24.06.2013 12:34 15,1 C 15,7 C 81 % 1019,4 hPa 0,0 l/m 0 min 0 min 1,4 UV-I 290 W/m 0,0 km/h (0 Bft)
24.06.2013 12:36 15,2 C 15,7 C 82 % 1019,4 hPa 0,0 l/m 0 min 0 min 1,5 UV-I 304 W/m 7,7 km/h (2 Bft)
24.06.2013 12:38 15,2 C 15,7 C 81 % 1019,5 hPa 0,0 l/m 0 min 0 min 1,6 UV-I 323 W/m 12,9 km/h (3 Bft)
24.06.2013 12:40 15,2 C 16,2 C 81 % 1019,5 hPa 0,0 l/m 0 min 0 min 1,7 UV-I 329 W/m 12,9 km/h (3 Bft)
24.06.2013 12:42 15,2 C 16,2 C 81 % 1019,5 hPa 0,0 l/m 0 min 0 min 1,7 UV-I 329 W/m 18,0 km/h (3 Bft)
24.06.2013 12:44 15,3 C 16,2 C 81 % 1019,6 hPa 0,0 l/m 0 min 0 min 1,6 UV-I 320 W/m 15,4 km/h (3 Bft)
24.06.2013 12:46 15,3 C 16,2 C 81 % 1019,5 hPa 0,0 l/m 0 min 0 min 1,5 UV-I 311 W/m 15,4 km/h (3 Bft)
24.06.2013 12:48 15,2 C 15,7 C 81 % 1019,6 hPa 0,0 l/m 0 min 0 min 1,4 UV-I 297 W/m 10,3 km/h (2 Bft)
24.06.2013 12:50 15,1 C 15,7 C 81 % 1019,5 hPa 0,0 l/m 0 min 0 min 1,2 UV-I 250 W/m 10,3 km/h (2 Bft)
24.06.2013 12:52 15,2 C 15,7 C 82 % 1019,6 hPa 0,0 l/m 0 min 0 min 1,0 UV-I 237 W/m 20,6 km/h (4 Bft)
24.06.2013 12:54 15,1 C 15,7 C 81 % 1019,5 hPa 0,0 l/m 0 min 0 min 1,2 UV-I 264 W/m 12,9 km/h (3 Bft)
24.06.2013 12:56 15,2 C 15,7 C 82 % 1019,6 hPa 0,0 l/m 0 min 0 min 1,6 UV-I 348 W/m 0,0 km/h (0 Bft)
24.06.2013 12:58 15,2 C 16,2 C 81 % 1019,6 hPa 0,0 l/m 0 min 0 min 1,9 UV-I 362 W/m 15,4 km/h (3 Bft)
24.06.2013 13:00 15,3 C 16,2 C 81 % 1019,6 hPa 0,0 l/m 0 min 0 min 1,8 UV-I 360 W/m 7,7 km/h (2 Bft)
24.06.2013 13:02 15,4 C 16,8 C 81 % 1019,6 hPa 0,0 l/m 0 min 0 min 1,8 UV-I 355 W/m 10,3 km/h (2 Bft)
24.06.2013 13:05 15,6 C 16,2 C 80 % 1019,7 hPa 0,0 l/m 0 min 0 min 1,8 UV-I 352 W/m 18,0 km/h (3 Bft)
24.06.2013 13:06 15,6 C 16,8 C 80 % 1019,7 hPa 0,0 l/m 0 min 0 min 1,8 UV-I 353 W/m 2,6 km/h (1 Bft)
24.06.2013 13:08 15,6 C 16,8 C 80 % 1019,6 hPa 0,0 l/m 0 min 0 min 1,9 UV-I 369 W/m 10,3 km/h (2 Bft)
24.06.2013 13:10 15,7 C 16,8 C 81 % 1019,6 hPa 0,0 l/m 0 min 0 min 2,0 UV-I 374 W/m 10,3 km/h (2 Bft)
24.06.2013 13:12 15,7 C 16,8 C 80 % 1019,6 hPa 0,0 l/m 0 min 0 min 2,1 UV-I 381 W/m 12,9 km/h (3 Bft)
24.06.2013 13:14 15,7 C 16,8 C 80 % 1019,7 hPa 0,0 l/m 0 min 0 min 2,1 UV-I 388 W/m 7,7 km/h (2 Bft)
24.06.2013 13:16 15,7 C 16,8 C 81 % 1019,8 hPa 0,0 l/m 0 min 0 min 2,0 UV-I 378 W/m 7,7 km/h (2 Bft)
24.06.2013 13:18 15,7 C 16,2 C 79 % 1019,8 hPa 0,0 l/m 0 min 0 min 1,9 UV-I 364 W/m 15,4 km/h (3 Bft)
24.06.2013 13:20 15,7 C 16,8 C 80 % 1019,8 hPa 0,0 l/m 0 min 0 min 2,0 UV-I 373 W/m 18,0 km/h (3 Bft)
24.06.2013 13:22 15,7 C 16,8 C 80 % 1019,8 hPa 0,0 l/m 0 min 0 min 1,9 UV-I 364 W/m 10,3 km/h (2 Bft)
24.06.2013 13:24 15,7 C 16,8 C 80 % 1019,8 hPa 0,0 l/m 0 min 0 min 1,7 UV-I 330 W/m 12,9 km/h (3 Bft)
24.06.2013 13:26 15,8 C 16,8 C 81 % 1019,8 hPa 0,0 l/m 0 min 0 min 1,3 UV-I 269 W/m 15,4 km/h (3 Bft)
24.06.2013 13:28 15,7 C 16,2 C 80 % 1019,9 hPa 0,0 l/m 0 min 0 min 1,3 UV-I 285 W/m 5,1 km/h (1 Bft)
24.06.2013 13:30 15,8 C 16,8 C 81 % 1019,8 hPa 0,0 l/m 0 min 0 min 1,4 UV-I 299 W/m 2,6 km/h (1 Bft)
24.06.2013 13:32 15,8 C 16,8 C 81 % 1019,9 hPa 0,0 l/m 0 min 0 min 1,8 UV-I 385 W/m 0,0 km/h (0 Bft)
24.06.2013 13:34 15,9 C 17,3 C 80 % 1019,9 hPa 0,0 l/m 0 min 0 min 1,8 UV-I 378 W/m 15,4 km/h (3 Bft)
24.06.2013 13:36 15,8 C 16,8 C 79 % 1019,9 hPa 0,0 l/m 0 min 0 min 1,8 UV-I 359 W/m 15,4 km/h (3 Bft)
24.06.2013 13:38 15,7 C 16,8 C 79 % 1019,8 hPa 0,0 l/m 0 min 0 min 1,7 UV-I 343 W/m 15,4 km/h (3 Bft)
24.06.2013 13:40 15,7 C 16,8 C 79 % 1019,8 hPa 0,0 l/m 0 min 0 min 1,6 UV-I 318 W/m 12,9 km/h (3 Bft)
24.06.2013 13:42 15,7 C 16,2 C 79 % 1019,8 hPa 0,0 l/m 0 min 0 min 1,3 UV-I 281 W/m 10,3 km/h (2 Bft)
24.06.2013 13:44 15,7 C 16,2 C 80 % 1019,8 hPa 0,0 l/m 0 min 0 min 1,3 UV-I 279 W/m 12,9 km/h (3 Bft)
24.06.2013 13:46 15,7 C 16,2 C 79 % 1019,9 hPa 0,0 l/m 0 min 0 min 1,5 UV-I 294 W/m 10,3 km/h (2 Bft)
24.06.2013 13:48 15,7 C 16,8 C 80 % 1019,9 hPa 0,0 l/m 0 min 0 min 1,7 UV-I 325 W/m 12,9 km/h (3 Bft)
24.06.2013 13:50 15,7 C 16,2 C 79 % 1019,9 hPa 0,0 l/m 0 min 0 min 1,8 UV-I 350 W/m 12,9 km/h (3 Bft)
24.06.2013 13:52 15,7 C 16,8 C 79 % 1019,9 hPa 0,0 l/m 0 min 0 min 1,7 UV-I 318 W/m 15,4 km/h (3 Bft)
24.06.2013 13:54 15,8 C 16,2 C 79 % 1020,0 hPa 0,0 l/m 0 min 0 min 1,4 UV-I 257 W/m 18,0 km/h (3 Bft)
24.06.2013 13:56 15,8 C 16,2 C 79 % 1020,0 hPa 0,0 l/m 0 min 0 min 1,0 UV-I 227 W/m 18,0 km/h (3 Bft)
24.06.2013 13:58 15,8 C 16,2 C 79 % 1020,0 hPa 0,0 l/m 0 min 0 min 1,0 UV-I 234 W/m 23,2 km/h (4 Bft)
24.06.2013 14:00 15,8 C 16,2 C 79 % 1020,0 hPa 0,0 l/m 0 min 0 min 1,0 UV-I 227 W/m 15,4 km/h (3 Bft)
24.06.2013 14:02 15,8 C 15,7 C 78 % 1020,0 hPa 0,0 l/m 0 min 0 min 1,0 UV-I 232 W/m 15,4 km/h (3 Bft)
24.06.2013 14:06 15,8 C 15,7 C 78 % 1020,1 hPa 0,0 l/m 0 min 0 min 1,1 UV-I 244 W/m 15,4 km/h (3 Bft)
24.06.2013 14:08 15,9 C 15,7 C 78 % 1020,1 hPa 0,0 l/m 0 min 0 min 1,1 UV-I 248 W/m 12,9 km/h (3 Bft)
24.06.2013 14:10 15,8 C 15,7 C 78 % 1020,1 hPa 0,0 l/m 0 min 0 min 1,1 UV-I 250 W/m 10,3 km/h (2 Bft)
24.06.2013 14:12 15,8 C 15,7 C 78 % 1020,2 hPa 0,0 l/m 0 min 0 min 1,2 UV-I 255 W/m 10,3 km/h (2 Bft)
24.06.2013 14:14 15,8 C 15,7 C 77 % 1020,1 hPa 0,0 l/m 0 min 0 min 1,2 UV-I 262 W/m 15,4 km/h (3 Bft)
24.06.2013 14:16 15,8 C 15,7 C 77 % 1020,2 hPa 0,0 l/m 0 min 0 min 1,3 UV-I 267 W/m 10,3 km/h (2 Bft)
24.06.2013 14:18 15,8 C 15,7 C 78 % 1020,2 hPa 0,0 l/m 0 min 0 min 1,3 UV-I 276 W/m 18,0 km/h (3 Bft)
24.06.2013 14:20 15,7 C 15,7 C 78 % 1020,2 hPa 0,0 l/m 0 min 0 min 1,4 UV-I 287 W/m 18,0 km/h (3 Bft)
24.06.2013 14:22 15,7 C 15,7 C 78 % 1020,2 hPa 0,0 l/m 0 min 0 min 1,5 UV-I 297 W/m 12,9 km/h (3 Bft)
24.06.2013 14:24 15,7 C 15,7 C 79 % 1020,2 hPa 0,0 l/m 0 min 0 min 1,6 UV-I 308 W/m 0,0 km/h (0 Bft)
24.06.2013 14:26 15,7 C 15,7 C 79 % 1020,2 hPa 0,0 l/m 0 min 0 min 1,8 UV-I 320 W/m 12,9 km/h (3 Bft)
24.06.2013 14:28 15,7 C 16,2 C 79 % 1020,2 hPa 0,0 l/m 0 min 0 min 1,9 UV-I 334 W/m 12,9 km/h (3 Bft)
24.06.2013 14:30 15,7 C 16,2 C 79 % 1020,3 hPa 0,0 l/m 0 min 0 min 2,0 UV-I 353 W/m 12,9 km/h (3 Bft)
24.06.2013 14:32 15,7 C 16,8 C 79 % 1020,3 hPa 0,0 l/m 0 min 0 min 2,1 UV-I 359 W/m 10,3 km/h (2 Bft)
24.06.2013 14:34 15,8 C 16,8 C 79 % 1020,3 hPa 0,0 l/m 0 min 0 min 2,1 UV-I 357 W/m 12,9 km/h (3 Bft)
24.06.2013 14:36 15,8 C 16,8 C 78 % 1020,3 hPa 0,0 l/m 0 min 0 min 2,2 UV-I 367 W/m 15,4 km/h (3 Bft)
24.06.2013 14:38 15,8 C 16,8 C 78 % 1020,3 hPa 0,0 l/m 0 min 0 min 2,3 UV-I 371 W/m 10,3 km/h (2 Bft)
24.06.2013 14:40 15,8 C 16,8 C 77 % 1020,3 hPa 0,0 l/m 0 min 0 min 2,3 UV-I 373 W/m 12,9 km/h (3 Bft)
24.06.2013 14:42 15,9 C 16,8 C 77 % 1020,2 hPa 0,0 l/m 0 min 0 min 2,6 UV-I 420 W/m 10,3 km/h (2 Bft)
24.06.2013 14:44 16,0 C 17,3 C 77 % 1020,3 hPa 0,0 l/m 0 min 0 min 2,5 UV-I 399 W/m 18,0 km/h (3 Bft)
24.06.2013 14:46 16,1 C 17,3 C 78 % 1020,2 hPa 0,0 l/m 0 min 0 min 2,5 UV-I 397 W/m 10,3 km/h (2 Bft)
24.06.2013 14:48 16,2 C 17,3 C 77 % 1020,3 hPa 0,0 l/m 0 min 0 min 2,6 UV-I 431 W/m 12,9 km/h (3 Bft)
24.06.2013 14:50 16,3 C 17,9 C 78 % 1020,2 hPa 0,0 l/m 0 min 0 min 2,7 UV-I 439 W/m 10,3 km/h (2 Bft)
24.06.2013 14:52 16,4 C 17,9 C 77 % 1020,2 hPa 0,0 l/m 0 min 0 min 2,8 UV-I 452 W/m 2,6 km/h (1 Bft)
24.06.2013 14:54 16,4 C 17,9 C 77 % 1020,2 hPa 0,0 l/m 2 min 0 min 2,5 UV-I 522 W/m 10,3 km/h (2 Bft)
24.06.2013 14:56 16,6 C 18,4 C 77 % 1020,3 hPa 0,0 l/m 2 min 0 min 5,1 UV-I 582 W/m 12,9 km/h (3 Bft)
24.06.2013 14:58 16,9 C 19,0 C 77 % 1020,2 hPa 0,0 l/m 2 min 0 min 3,6 UV-I 1157 W/m 20,6 km/h (4 Bft)
24.06.2013 15:00 17,1 C 19,0 C 75 % 1020,3 hPa 0,0 l/m 2 min 0 min 3,8 UV-I 480 W/m 18,0 km/h (3 Bft)
24.06.2013 15:02 17,3 C 19,6 C 77 % 1020,2 hPa 0,0 l/m 2 min 0 min 3,9 UV-I 666 W/m 18,0 km/h (3 Bft)
24.06.2013 15:06 17,6 C 19,0 C 74 % 1020,3 hPa 0,0 l/m 2 min 0 min 2,1 UV-I 698 W/m 23,2 km/h (4 Bft)
24.06.2013 15:08 17,4 C 19,0 C 74 % 1020,2 hPa 0,0 l/m 0 min 0 min 1,8 UV-I 353 W/m 7,7 km/h (2 Bft)
24.06.2013 15:10 17,3 C 18,4 C 73 % 1020,3 hPa 0,0 l/m 0 min 0 min 1,8 UV-I 406 W/m 10,3 km/h (2 Bft)
24.06.2013 15:12 17,1 C 17,9 C 73 % 1020,3 hPa 0,0 l/m 0 min 0 min 1,8 UV-I 387 W/m 12,9 km/h (3 Bft)
24.06.2013 15:14 16,9 C 17,9 C 74 % 1020,3 hPa 0,0 l/m 0 min 0 min 1,7 UV-I 367 W/m 15,4 km/h (3 Bft)
24.06.2013 15:16 16,8 C 17,9 C 75 % 1020,3 hPa 0,0 l/m 0 min 0 min 1,7 UV-I 366 W/m 15,4 km/h (3 Bft)
24.06.2013 15:18 16,8 C 17,9 C 75 % 1020,3 hPa 0,0 l/m 0 min 0 min 1,6 UV-I 357 W/m 7,7 km/h (2 Bft)
24.06.2013 15:20 16,7 C 17,9 C 75 % 1020,4 hPa 0,0 l/m 0 min 0 min 1,7 UV-I 355 W/m 15,4 km/h (3 Bft)
24.06.2013 15:22 16,6 C 17,3 C 75 % 1020,4 hPa 0,0 l/m 0 min 0 min 1,6 UV-I 353 W/m 23,2 km/h (4 Bft)
24.06.2013 15:24 16,4 C 17,3 C 75 % 1020,3 hPa 0,0 l/m 0 min 0 min 1,6 UV-I 343 W/m 15,4 km/h (3 Bft)
24.06.2013 15:26 16,3 C 17,3 C 75 % 1020,5 hPa 0,0 l/m 0 min 0 min 1,6 UV-I 350 W/m 10,3 km/h (2 Bft)
24.06.2013 15:28 16,2 C 17,3 C 75 % 1020,4 hPa 0,0 l/m 0 min 0 min 1,6 UV-I 353 W/m 15,4 km/h (3 Bft)
24.06.2013 15:30 16,2 C 17,3 C 76 % 1020,4 hPa 0,0 l/m 0 min 0 min 1,6 UV-I 353 W/m 10,3 km/h (2 Bft)
24.06.2013 15:32 16,2 C 17,3 C 77 % 1020,5 hPa 0,0 l/m 0 min 0 min 1,6 UV-I 343 W/m 10,3 km/h (2 Bft)
24.06.2013 15:34 16,3 C 17,3 C 76 % 1020,5 hPa 0,0 l/m 0 min 0 min 1,5 UV-I 320 W/m 10,3 km/h (2 Bft)
24.06.2013 15:36 16,3 C 17,3 C 76 % 1020,5 hPa 0,0 l/m 0 min 0 min 1,4 UV-I 311 W/m 12,9 km/h (3 Bft)
24.06.2013 15:38 16,3 C 17,3 C 76 % 1020,5 hPa 0,0 l/m 0 min 0 min 1,4 UV-I 318 W/m 12,9 km/h (3 Bft)
24.06.2013 15:40 16,3 C 17,3 C 77 % 1020,5 hPa 0,0 l/m 0 min 0 min 1,3 UV-I 304 W/m 2,6 km/h (1 Bft)
24.06.2013 15:42 16,3 C 17,3 C 76 % 1020,5 hPa 0,0 l/m 0 min 0 min 1,3 UV-I 308 W/m 10,3 km/h (2 Bft)
24.06.2013 15:44 16,3 C 17,3 C 76 % 1020,5 hPa 0,0 l/m 0 min 0 min 1,2 UV-I 285 W/m 15,4 km/h (3 Bft)
24.06.2013 15:46 16,3 C 17,3 C 76 % 1020,5 hPa 0,0 l/m 0 min 0 min 1,1 UV-I 260 W/m 0,0 km/h (0 Bft)
24.06.2013 15:48 16,4 C 17,3 C 78 % 1020,5 hPa 0,0 l/m 0 min 0 min 1,2 UV-I 285 W/m 12,9 km/h (3 Bft)
24.06.2013 15:50 16,4 C 17,3 C 77 % 1020,6 hPa 0,0 l/m 0 min 0 min 1,1 UV-I 267 W/m 7,7 km/h (2 Bft)
24.06.2013 15:52 16,4 C 17,3 C 76 % 1020,7 hPa 0,0 l/m 0 min 0 min 0,9 UV-I 255 W/m 10,3 km/h (2 Bft)
24.06.2013 15:54 16,4 C 17,3 C 77 % 1020,7 hPa 0,0 l/m 0 min 0 min 1,1 UV-I 288 W/m 5,1 km/h (1 Bft)
24.06.2013 15:56 16,4 C 16,8 C 76 % 1020,7 hPa 0,0 l/m 0 min 0 min 1,0 UV-I 279 W/m 10,3 km/h (2 Bft)
24.06.2013 15:58 16,3 C 16,8 C 75 % 1020,7 hPa 0,0 l/m 0 min 0 min 0,9 UV-I 251 W/m 15,4 km/h (3 Bft)
24.06.2013 16:00 16,3 C 16,8 C 75 % 1020,7 hPa 0,0 l/m 0 min 0 min 1,2 UV-I 290 W/m 18,0 km/h (3 Bft)
24.06.2013 16:02 16,2 C 16,8 C 76 % 1020,7 hPa 0,0 l/m 0 min 0 min 1,2 UV-I 294 W/m 15,4 km/h (3 Bft)
24.06.2013 16:06 16,2 C 16,2 C 76 % 1020,8 hPa 0,0 l/m 0 min 0 min 0,7 UV-I 227 W/m 18,0 km/h (3 Bft)
24.06.2013 16:08 16,1 C 16,2 C 75 % 1020,8 hPa 0,0 l/m 0 min 0 min 0,7 UV-I 218 W/m 12,9 km/h (3 Bft)
24.06.2013 16:10 15,9 C 16,2 C 76 % 1020,8 hPa 0,0 l/m 0 min 0 min 0,8 UV-I 243 W/m 12,9 km/h (3 Bft)
24.06.2013 16:12 15,9 C 16,2 C 77 % 1020,9 hPa 0,0 l/m 0 min 0 min 1,0 UV-I 267 W/m 15,4 km/h (3 Bft)
24.06.2013 16:14 15,9 C 16,2 C 76 % 1020,9 hPa 0,0 l/m 0 min 0 min 1,0 UV-I 267 W/m 18,0 km/h (3 Bft)
24.06.2013 16:16 15,9 C 16,2 C 76 % 1020,9 hPa 0,0 l/m 0 min 0 min 1,1 UV-I 272 W/m 15,4 km/h (3 Bft)
24.06.2013 16:18 15,9 C 16,2 C 77 % 1020,9 hPa 0,0 l/m 0 min 0 min 1,0 UV-I 265 W/m 12,9 km/h (3 Bft)
24.06.2013 16:20 16,0 C 16,8 C 77 % 1020,9 hPa 0,0 l/m 0 min 0 min 0,8 UV-I 244 W/m 2,6 km/h (1 Bft)
24.06.2013 16:22 16,1 C 16,2 C 76 % 1020,9 hPa 0,0 l/m 0 min 0 min 0,6 UV-I 218 W/m 7,7 km/h (2 Bft)
24.06.2013 16:24 16,1 C 16,2 C 77 % 1020,9 hPa 0,0 l/m 0 min 0 min 0,7 UV-I 230 W/m 10,3 km/h (2 Bft)
24.06.2013 16:26 16,1 C 16,8 C 77 % 1020,9 hPa 0,0 l/m 0 min 0 min 0,8 UV-I 248 W/m 7,7 km/h (2 Bft)
24.06.2013 16:28 16,2 C 16,8 C 78 % 1020,9 hPa 0,0 l/m 0 min 0 min 0,6 UV-I 223 W/m 5,1 km/h (1 Bft)
24.06.2013 16:30 16,1 C 16,2 C 76 % 1021,0 hPa 0,0 l/m 0 min 0 min 0,0 UV-I 190 W/m 10,3 km/h (2 Bft)
24.06.2013 16:32 16,1 C 16,2 C 77 % 1021,0 hPa 0,0 l/m 0 min 0 min 0,0 UV-I 169 W/m 10,3 km/h (2 Bft)
24.06.2013 16:34 16,1 C 16,2 C 76 % 1020,9 hPa 0,0 l/m 0 min 0 min 0,0 UV-I 153 W/m 20,6 km/h (4 Bft)
24.06.2013 16:36 15,9 C 15,7 C 77 % 1020,9 hPa 0,0 l/m 0 min 0 min 0,0 UV-I 149 W/m 20,6 km/h (4 Bft)
24.06.2013 16:38 15,9 C 15,7 C 77 % 1021,0 hPa 0,0 l/m 0 min 0 min 0,0 UV-I 148 W/m 7,7 km/h (2 Bft)
24.06.2013 16:40 15,8 C 15,7 C 77 % 1021,0 hPa 0,0 l/m 0 min 0 min 0,0 UV-I 144 W/m 7,7 km/h (2 Bft)
24.06.2013 16:42 15,8 C 15,7 C 78 % 1021,0 hPa 0,0 l/m 0 min 0 min 0,0 UV-I 144 W/m 5,1 km/h (1 Bft)
24.06.2013 16:44 15,8 C 15,7 C 77 % 1021,0 hPa 0,0 l/m 0 min 0 min 0,0 UV-I 139 W/m 10,3 km/h (2 Bft)
24.06.2013 16:46 15,8 C 15,7 C 77 % 1021,0 hPa 0,0 l/m 0 min 0 min 0,0 UV-I 137 W/m 10,3 km/h (2 Bft)
24.06.2013 16:48 15,8 C 15,7 C 77 % 1021,0 hPa 0,0 l/m 0 min 0 min 0,0 UV-I 128 W/m 15,4 km/h (3 Bft)
24.06.2013 16:50 15,8 C 15,7 C 77 % 1021,1 hPa 0,0 l/m 0 min 0 min 0,0 UV-I 146 W/m 10,3 km/h (2 Bft)
24.06.2013 16:52 15,8 C 15,7 C 77 % 1021,1 hPa 0,0 l/m 0 min 0 min 0,0 UV-I 158 W/m 10,3 km/h (2 Bft)
24.06.2013 16:54 15,8 C 15,7 C 77 % 1021,0 hPa 0,0 l/m 0 min 0 min 0,0 UV-I 163 W/m 2,6 km/h (1 Bft)
24.06.2013 16:56 15,8 C 15,7 C 77 % 1021,0 hPa 0,0 l/m 0 min 0 min 0,0 UV-I 137 W/m 10,3 km/h (2 Bft)
24.06.2013 16:58 15,8 C 15,7 C 77 % 1021,0 hPa 0,0 l/m 0 min 0 min 0,0 UV-I 116 W/m 2,6 km/h (1 Bft)
24.06.2013 17:00 15,8 C 15,7 C 77 % 1021,1 hPa 0,0 l/m 0 min 0 min 0,0 UV-I 90 W/m 7,7 km/h (2 Bft)
24.06.2013 17:02 15,8 C 15,7 C 78 % 1021,0 hPa 0,0 l/m 0 min 0 min 0,0 UV-I 83 W/m 2,6 km/h (1 Bft)
24.06.2013 17:05 15,8 C 15,1 C 77 % 1021,1 hPa 0,0 l/m 0 min 0 min 0,0 UV-I 86 W/m 18,0 km/h (3 Bft)
24.06.2013 17:06 15,8 C 15,1 C 77 % 1021,1 hPa 0,0 l/m 0 min 0 min 0,0 UV-I 86 W/m 5,1 km/h (1 Bft)
24.06.2013 17:08 15,8 C 15,1 C 77 % 1021,1 hPa 0,0 l/m 0 min 0 min 0,0 UV-I 86 W/m 12,9 km/h (3 Bft)
24.06.2013 17:10 15,8 C 15,1 C 77 % 1021,1 hPa 0,0 l/m 0 min 0 min 0,0 UV-I 91 W/m 15,4 km/h (3 Bft)
24.06.2013 17:12 15,8 C 15,1 C 77 % 1021,1 hPa 0,0 l/m 0 min 0 min 0,0 UV-I 105 W/m 12,9 km/h (3 Bft)
24.06.2013 17:14 15,8 C 15,1 C 77 % 1021,1 hPa 0,0 l/m 0 min 0 min 0,0 UV-I 132 W/m 10,3 km/h (2 Bft)
24.06.2013 17:16 15,8 C 15,1 C 77 % 1021,2 hPa 0,0 l/m 0 min 0 min 0,0 UV-I 135 W/m 7,7 km/h (2 Bft)
24.06.2013 17:18 15,8 C 15,1 C 77 % 1021,2 hPa 0,0 l/m 0 min 2 min 0,0 UV-I 135 W/m 12,9 km/h (3 Bft)
24.06.2013 17:20 15,8 C 15,1 C 77 % 1021,2 hPa 0,0 l/m 0 min 0 min 0,0 UV-I 155 W/m 15,4 km/h (3 Bft)
24.06.2013 17:22 15,8 C 15,7 C 77 % 1021,2 hPa 0,0 l/m 0 min 0 min 0,0 UV-I 144 W/m 18,0 km/h (3 Bft)
24.06.2013 17:24 15,8 C 15,7 C 77 % 1021,2 hPa 0,0 l/m 0 min 0 min 0,0 UV-I 144 W/m 7,7 km/h (2 Bft)
24.06.2013 17:26 15,8 C 15,7 C 77 % 1021,2 hPa 0,0 l/m 0 min 2 min 0,0 UV-I 132 W/m 5,1 km/h (1 Bft)
24.06.2013 17:28 15,8 C 15,7 C 78 % 1021,3 hPa 0,0 l/m 0 min 0 min 0,0 UV-I 107 W/m 7,7 km/h (2 Bft)
24.06.2013 17:30 15,8 C 15,1 C 78 % 1021,3 hPa 0,0 l/m 0 min 2 min 0,0 UV-I 90 W/m 7,7 km/h (2 Bft)
24.06.2013 17:32 15,9 C 14,6 C 79 % 1021,4 hPa 0,0 l/m 0 min 2 min 0,0 UV-I 74 W/m 12,9 km/h (3 Bft)
24.06.2013 17:34 15,8 C 14,0 C 78 % 1021,4 hPa 0,0 l/m 0 min 2 min 0,0 UV-I 72 W/m 18,0 km/h (3 Bft)
24.06.2013 17:36 15,8 C 14,0 C 78 % 1021,4 hPa 0,0 l/m 0 min 2 min 0,0 UV-I 70 W/m 7,7 km/h (2 Bft)
24.06.2013 17:38 15,8 C 14,0 C 79 % 1021,4 hPa 0,0 l/m 0 min 2 min 0,0 UV-I 74 W/m 15,4 km/h (3 Bft)
24.06.2013 17:40 15,8 C 14,0 C 79 % 1021,4 hPa 0,0 l/m 0 min 0 min 0,0 UV-I 86 W/m 5,1 km/h (1 Bft)
24.06.2013 17:42 15,7 C 14,6 C 80 % 1021,4 hPa 0,0 l/m 0 min 0 min 0,0 UV-I 104 W/m 0,0 km/h (0 Bft)
24.06.2013 17:44 15,8 C 14,6 C 80 % 1021,4 hPa 0,0 l/m 0 min 0 min 0,0 UV-I 127 W/m 0,0 km/h (0 Bft)
24.06.2013 17:46 15,7 C 14,6 C 81 % 1021,4 hPa 0,0 l/m 0 min 0 min 0,0 UV-I 139 W/m 12,9 km/h (3 Bft)
24.06.2013 17:48 15,7 C 14,6 C 81 % 1021,4 hPa 0,0 l/m 0 min 0 min 0,0 UV-I 130 W/m 7,7 km/h (2 Bft)
24.06.2013 17:50 15,7 C 14,6 C 81 % 1021,5 hPa 0,0 l/m 0 min 0 min 0,0 UV-I 114 W/m 0,0 km/h (0 Bft)
24.06.2013 17:52 15,6 C 14,6 C 81 % 1021,5 hPa 0,0 l/m 0 min 0 min 0,0 UV-I 114 W/m 5,1 km/h (1 Bft)
24.06.2013 17:54 15,6 C 14,6 C 81 % 1021,4 hPa 0,0 l/m 0 min 0 min 0,0 UV-I 113 W/m 12,9 km/h (3 Bft)
24.06.2013 17:56 15,6 C 14,6 C 81 % 1021,4 hPa 0,0 l/m 0 min 0 min 0,0 UV-I 109 W/m 7,7 km/h (2 Bft)
24.06.2013 17:58 15,5 C 14,6 C 81 % 1021,5 hPa 0,0 l/m 0 min 0 min 0,0 UV-I 111 W/m 7,7 km/h (2 Bft)
24.06.2013 18:00 15,4 C 14,6 C 81 % 1021,5 hPa 0,0 l/m 0 min 2 min 0,0 UV-I 113 W/m 10,3 km/h (2 Bft)
24.06.2013 18:02 15,4 C 14,6 C 81 % 1021,5 hPa 0,0 l/m 0 min 2 min 0,0 UV-I 120 W/m 5,1 km/h (1 Bft)
24.06.2013 18:05 15,4 C 14,0 C 82 % 1021,5 hPa 0,0 l/m 0 min 2 min 0,0 UV-I 132 W/m 10,3 km/h (2 Bft)
24.06.2013 18:06 15,3 C 14,0 C 82 % 1021,5 hPa 0,0 l/m 0 min 1 min 0,0 UV-I 132 W/m 10,3 km/h (2 Bft)
24.06.2013 18:08 15,3 C 13,4 C 82 % 1021,6 hPa 0,0 l/m 0 min 2 min 0,0 UV-I 135 W/m 12,9 km/h (3 Bft)
24.06.2013 18:10 15,3 C 13,4 C 83 % 1021,5 hPa 0,0 l/m 0 min 2 min 0,0 UV-I 134 W/m 7,7 km/h (2 Bft)
24.06.2013 18:12 15,3 C 13,4 C 84 % 1021,6 hPa 0,0 l/m 0 min 2 min 0,0 UV-I 134 W/m 7,7 km/h (2 Bft)
24.06.2013 18:14 15,2 C 13,4 C 84 % 1021,5 hPa 0,0 l/m 0 min 2 min 0,0 UV-I 135 W/m 10,3 km/h (2 Bft)
24.06.2013 18:16 15,2 C 13,4 C 84 % 1021,5 hPa 0,0 l/m 0 min 2 min 0,0 UV-I 135 W/m 7,7 km/h (2 Bft)
24.06.2013 18:18 15,2 C 13,4 C 84 % 1021,6 hPa 0,0 l/m 0 min 2 min 0,0 UV-I 132 W/m 5,1 km/h (1 Bft)
24.06.2013 18:20 15,1 C 12,9 C 85 % 1021,6 hPa 0,0 l/m 0 min 2 min 0,0 UV-I 128 W/m 0,0 km/h (0 Bft)
24.06.2013 18:22 15,1 C 13,4 C 85 % 1021,7 hPa 0,0 l/m 0 min 2 min 0,0 UV-I 128 W/m 0,0 km/h (0 Bft)
24.06.2013 18:24 15,1 C 13,4 C 86 % 1021,7 hPa 0,0 l/m 0 min 2 min 0,0 UV-I 113 W/m 2,6 km/h (1 Bft)
24.06.2013 18:26 15,1 C 13,4 C 86 % 1021,6 hPa 0,0 l/m 0 min 2 min 0,0 UV-I 88 W/m 0,0 km/h (0 Bft)
24.06.2013 18:28 15,1 C 12,9 C 86 % 1021,7 hPa 0,0 l/m 0 min 2 min 0,0 UV-I 77 W/m 2,6 km/h (1 Bft)
24.06.2013 18:30 15,0 C 12,9 C 86 % 1021,7 hPa 0,0 l/m 0 min 2 min 0,0 UV-I 56 W/m 0,0 km/h (0 Bft)
24.06.2013 18:32 14,9 C 12,9 C 86 % 1021,6 hPa 0,0 l/m 0 min 2 min 0,0 UV-I 53 W/m 7,7 km/h (2 Bft)
24.06.2013 18:34 14,9 C 12,9 C 86 % 1021,7 hPa 0,0 l/m 0 min 2 min 0,0 UV-I 62 W/m 0,0 km/h (0 Bft)
24.06.2013 18:36 14,8 C 12,9 C 86 % 1021,7 hPa 0,0 l/m 0 min 2 min 0,0 UV-I 88 W/m 2,6 km/h (1 Bft)
24.06.2013 18:38 14,8 C 12,9 C 87 % 1021,7 hPa 0,0 l/m 0 min 2 min 0,0 UV-I 97 W/m 0,0 km/h (0 Bft)
24.06.2013 18:40 14,8 C 12,9 C 87 % 1021,8 hPa 0,0 l/m 0 min 2 min 0,0 UV-I 100 W/m 7,7 km/h (2 Bft)
24.06.2013 18:42 14,7 C 12,9 C 87 % 1021,8 hPa 0,0 l/m 0 min 2 min 0,0 UV-I 98 W/m 12,9 km/h (3 Bft)
24.06.2013 18:44 14,7 C 12,9 C 87 % 1021,7 hPa 0,2 l/m 0 min 2 min 0,0 UV-I 98 W/m 7,7 km/h (2 Bft)
24.06.2013 18:46 14,6 C 12,3 C 88 % 1021,8 hPa 0,0 l/m 0 min 2 min 0,0 UV-I 95 W/m 7,7 km/h (2 Bft)
24.06.2013 18:48 14,6 C 12,3 C 88 % 1021,8 hPa 0,0 l/m 0 min 2 min 0,0 UV-I 93 W/m 2,6 km/h (1 Bft)
24.06.2013 18:50 14,5 C 12,3 C 88 % 1021,8 hPa 0,0 l/m 0 min 2 min 0,0 UV-I 93 W/m 2,6 km/h (1 Bft)
24.06.2013 18:52 14,4 C 12,3 C 89 % 1021,9 hPa 0,0 l/m 0 min 2 min 0,0 UV-I 93 W/m 12,9 km/h (3 Bft)
24.06.2013 18:54 14,4 C 12,9 C 89 % 1021,8 hPa 0,0 l/m 0 min 0 min 0,0 UV-I 93 W/m 0,0 km/h (0 Bft)
24.06.2013 18:56 14,3 C 12,3 C 89 % 1021,8 hPa 0,0 l/m 0 min 0 min 0,0 UV-I 88 W/m 2,6 km/h (1 Bft)
24.06.2013 18:58 14,3 C 12,3 C 89 % 1021,8 hPa 0,0 l/m 0 min 0 min 0,0 UV-I 76 W/m 5,1 km/h (1 Bft)
24.06.2013 19:00 14,3 C 12,3 C 90 % 1021,9 hPa 0,0 l/m 0 min 0 min 0,0 UV-I 69 W/m 2,6 km/h (1 Bft)
24.06.2013 19:02 14,2 C 12,3 C 90 % 1021,9 hPa 0,0 l/m 0 min 0 min 0,0 UV-I 70 W/m 0,0 km/h (0 Bft)
24.06.2013 19:05 14,2 C 12,3 C 90 % 1021,9 hPa 0,0 l/m 0 min 0 min 0,0 UV-I 67 W/m 7,7 km/h (2 Bft)
24.06.2013 19:06 14,2 C 12,3 C 90 % 1021,9 hPa 0,0 l/m 0 min 0 min 0,0 UV-I 65 W/m 0,0 km/h (0 Bft)
24.06.2013 19:08 14,1 C 12,3 C 90 % 1022,0 hPa 0,0 l/m 0 min 0 min 0,0 UV-I 63 W/m 0,0 km/h (0 Bft)
24.06.2013 19:10 14,1 C 12,3 C 90 % 1022,0 hPa 0,0 l/m 0 min 0 min 0,0 UV-I 60 W/m 5,1 km/h (1 Bft)
24.06.2013 19:12 14,0 C 12,3 C 90 % 1022,1 hPa 0,0 l/m 0 min 0 min 0,0 UV-I 53 W/m 5,1 km/h (1 Bft)
24.06.2013 19:14 14,0 C 12,3 C 91 % 1022,1 hPa 0,0 l/m 0 min 0 min 0,0 UV-I 47 W/m 7,7 km/h (2 Bft)
24.06.2013 19:16 14,0 C 12,3 C 91 % 1022,1 hPa 0,0 l/m 0 min 0 min 0,0 UV-I 42 W/m 5,1 km/h (1 Bft)
24.06.2013 19:18 14,0 C 12,3 C 91 % 1022,2 hPa 0,0 l/m 0 min 0 min 0,0 UV-I 26 W/m 2,6 km/h (1 Bft)
24.06.2013 19:20 14,0 C 12,3 C 91 % 1022,2 hPa 0,0 l/m 0 min 0 min 0,0 UV-I 32 W/m 12,9 km/h (3 Bft)
24.06.2013 19:22 13,9 C 11,8 C 91 % 1022,2 hPa 0,0 l/m 0 min 0 min 0,0 UV-I 35 W/m 10,3 km/h (2 Bft)
24.06.2013 19:24 13,8 C 11,8 C 90 % 1022,2 hPa 0,0 l/m 0 min 0 min 0,0 UV-I 35 W/m 12,9 km/h (3 Bft)
24.06.2013 19:26 13,8 C 11,8 C 90 % 1022,2 hPa 0,0 l/m 0 min 0 min 0,0 UV-I 35 W/m 12,9 km/h (3 Bft)
24.06.2013 19:28 13,7 C 11,8 C 90 % 1022,3 hPa 0,0 l/m 0 min 0 min 0,0 UV-I 35 W/m 15,4 km/h (3 Bft)
24.06.2013 19:30 13,7 C 11,8 C 90 % 1022,3 hPa 0,0 l/m 0 min 0 min 0,0 UV-I 37 W/m 0,0 km/h (0 Bft)
24.06.2013 19:32 13,6 C 11,8 C 91 % 1022,2 hPa 0,0 l/m 0 min 0 min 0,0 UV-I 40 W/m 0,0 km/h (0 Bft)
24.06.2013 19:34 13,6 C 11,8 C 91 % 1022,3 hPa 0,0 l/m 0 min 0 min 0,0 UV-I 42 W/m 0,0 km/h (0 Bft)
24.06.2013 19:36 13,6 C 11,8 C 91 % 1022,3 hPa 0,0 l/m 0 min 0 min 0,0 UV-I 44 W/m 2,6 km/h (1 Bft)
24.06.2013 19:38 13,6 C 11,8 C 91 % 1022,3 hPa 0,0 l/m 0 min 0 min 0,0 UV-I 42 W/m 7,7 km/h (2 Bft)
24.06.2013 19:40 13,6 C 11,8 C 91 % 1022,4 hPa 0,0 l/m 0 min 0 min 0,0 UV-I 44 W/m 2,6 km/h (1 Bft)
24.06.2013 19:42 13,5 C 11,8 C 91 % 1022,4 hPa 0,0 l/m 0 min 0 min 0,0 UV-I 46 W/m 12,9 km/h (3 Bft)
24.06.2013 19:44 13,5 C 11,8 C 91 % 1022,4 hPa 0,0 l/m 0 min 0 min 0,0 UV-I 47 W/m 7,7 km/h (2 Bft)
24.06.2013 19:46 13,5 C 12,3 C 91 % 1022,4 hPa 0,0 l/m 0 min 0 min 0,0 UV-I 51 W/m 0,0 km/h (0 Bft)
24.06.2013 19:48 13,5 C 12,3 C 91 % 1022,3 hPa 0,0 l/m 0 min 0 min 0,0 UV-I 51 W/m 2,6 km/h (1 Bft)
24.06.2013 19:50 13,5 C 12,3 C 92 % 1022,4 hPa 0,0 l/m 0 min 0 min 0,0 UV-I 53 W/m 2,6 km/h (1 Bft)
24.06.2013 19:52 13,4 C 12,3 C 92 % 1022,4 hPa 0,0 l/m 0 min 0 min 0,0 UV-I 53 W/m 7,7 km/h (2 Bft)
24.06.2013 19:54 13,4 C 12,3 C 92 % 1022,5 hPa 0,0 l/m 0 min 0 min 0,0 UV-I 51 W/m 2,6 km/h (1 Bft)
24.06.2013 19:56 13,4 C 12,3 C 92 % 1022,5 hPa 0,0 l/m 0 min 0 min 0,0 UV-I 47 W/m 0,0 km/h (0 Bft)
24.06.2013 19:58 13,4 C 12,3 C 92 % 1022,5 hPa 0,0 l/m 0 min 0 min 0,0 UV-I 37 W/m 7,7 km/h (2 Bft)
24.06.2013 20:00 13,4 C 12,3 C 92 % 1022,5 hPa 0,0 l/m 0 min 0 min 0,0 UV-I 28 W/m 0,0 km/h (0 Bft)
24.06.2013 20:02 13,4 C 12,3 C 92 % 1022,5 hPa 0,0 l/m 0 min 0 min 0,0 UV-I 18 W/m 2,6 km/h (1 Bft)
24.06.2013 20:05 13,4 C 12,3 C 92 % 1022,5 hPa 0,0 l/m 0 min 2 min 0,0 UV-I 9 W/m 0,0 km/h (0 Bft)
24.06.2013 20:06 13,4 C 12,3 C 92 % 1022,6 hPa 0,0 l/m 0 min 1 min 0,0 UV-I 11 W/m 0,0 km/h (0 Bft)
24.06.2013 20:08 13,4 C 12,3 C 92 % 1022,6 hPa 0,0 l/m 0 min 2 min 0,0 UV-I 16 W/m 7,7 km/h (2 Bft)
24.06.2013 20:10 13,4 C 11,8 C 92 % 1022,7 hPa 0,0 l/m 0 min 2 min 0,0 UV-I 18 W/m 12,9 km/h (3 Bft)
24.06.2013 20:12 13,4 C 11,8 C 92 % 1022,7 hPa 0,0 l/m 0 min 2 min 0,0 UV-I 18 W/m 12,9 km/h (3 Bft)
24.06.2013 20:14 13,3 C 11,8 C 92 % 1022,7 hPa 0,0 l/m 0 min 2 min 0,0 UV-I 18 W/m 15,4 km/h (3 Bft)
24.06.2013 20:16 13,3 C 11,2 C 92 % 1022,7 hPa 0,0 l/m 0 min 2 min 0,0 UV-I 19 W/m 0,0 km/h (0 Bft)
24.06.2013 20:18 13,3 C 11,2 C 92 % 1022,7 hPa 0,0 l/m 0 min 2 min 0,0 UV-I 21 W/m 12,9 km/h (3 Bft)
24.06.2013 20:20 13,2 C 11,2 C 92 % 1022,7 hPa 0,0 l/m 0 min 2 min 0,0 UV-I 25 W/m 2,6 km/h (1 Bft)
24.06.2013 20:22 13,2 C 11,8 C 92 % 1022,7 hPa 0,0 l/m 0 min 2 min 0,0 UV-I 28 W/m 0,0 km/h (0 Bft)
24.06.2013 20:24 13,2 C 11,8 C 92 % 1022,7 hPa 0,0 l/m 0 min 0 min 0,0 UV-I 28 W/m 0,0 km/h (0 Bft)
24.06.2013 20:26 13,2 C 11,8 C 92 % 1022,7 hPa 0,0 l/m 0 min 2 min 0,0 UV-I 30 W/m 0,0 km/h (0 Bft)
24.06.2013 20:28 13,1 C 11,8 C 92 % 1022,8 hPa 0,0 l/m 0 min 2 min 0,0 UV-I 30 W/m 0,0 km/h (0 Bft)
24.06.2013 20:30 13,1 C 11,8 C 92 % 1022,7 hPa 0,2 l/m 0 min 2 min 0,0 UV-I 30 W/m 0,0 km/h (0 Bft)
24.06.2013 20:32 13,1 C 11,2 C 92 % 1022,8 hPa 0,0 l/m 0 min 2 min 0,0 UV-I 30 W/m 0,0 km/h (0 Bft)
24.06.2013 20:34 13,1 C 11,8 C 92 % 1022,7 hPa 0,0 l/m 0 min 2 min 0,0 UV-I 30 W/m 0,0 km/h (0 Bft)
24.06.2013 20:36 13,1 C 11,2 C 92 % 1022,7 hPa 0,0 l/m 0 min 2 min 0,0 UV-I 28 W/m 0,0 km/h (0 Bft)
24.06.2013 20:38 13,1 C 11,2 C 92 % 1022,8 hPa 0,0 l/m 0 min 2 min 0,0 UV-I 28 W/m 0,0 km/h (0 Bft)
24.06.2013 20:40 13,1 C 11,2 C 92 % 1022,8 hPa 0,0 l/m 0 min 2 min 0,0 UV-I 26 W/m 0,0 km/h (0 Bft)
24.06.2013 20:42 13,1 C 11,2 C 92 % 1022,8 hPa 0,0 l/m 0 min 2 min 0,0 UV-I 26 W/m 0,0 km/h (0 Bft)
24.06.2013 20:44 13,1 C 11,2 C 92 % 1022,8 hPa 0,0 l/m 0 min 2 min 0,0 UV-I 26 W/m 0,0 km/h (0 Bft)
24.06.2013 20:46 13,1 C 11,2 C 92 % 1022,8 hPa 0,0 l/m 0 min 2 min 0,0 UV-I 26 W/m 0,0 km/h (0 Bft)
24.06.2013 20:48 13,0 C 11,2 C 92 % 1022,7 hPa 0,0 l/m 0 min 2 min 0,0 UV-I 25 W/m 0,0 km/h (0 Bft)
24.06.2013 20:50 13,0 C 11,2 C 92 % 1022,7 hPa 0,0 l/m 0 min 2 min 0,0 UV-I 25 W/m 0,0 km/h (0 Bft)
24.06.2013 20:52 13,0 C 11,2 C 92 % 1022,8 hPa 0,0 l/m 0 min 2 min 0,0 UV-I 23 W/m 0,0 km/h (0 Bft)
24.06.2013 20:54 13,0 C 11,8 C 92 % 1022,8 hPa 0,0 l/m 0 min 2 min 0,0 UV-I 23 W/m 0,0 km/h (0 Bft)
24.06.2013 20:56 13,0 C 11,2 C 92 % 1022,8 hPa 0,0 l/m 0 min 2 min 0,0 UV-I 21 W/m 0,0 km/h (0 Bft)
24.06.2013 20:58 13,0 C 11,8 C 92 % 1022,8 hPa 0,0 l/m 0 min 2 min 0,0 UV-I 19 W/m 0,0 km/h (0 Bft)
24.06.2013 21:00 13,0 C 11,8 C 93 % 1022,8 hPa 0,0 l/m 0 min 2 min 0,0 UV-I 19 W/m 0,0 km/h (0 Bft)
24.06.2013 21:02 13,0 C 11,8 C 93 % 1022,9 hPa 0,0 l/m 0 min 2 min 0,0 UV-I 16 W/m 0,0 km/h (0 Bft)
24.06.2013 21:05 13,0 C 11,8 C 93 % 1022,9 hPa 0,0 l/m 0 min 2 min 0,0 UV-I 14 W/m 0,0 km/h (0 Bft)
24.06.2013 21:06 13,0 C 11,8 C 93 % 1022,9 hPa 0,0 l/m 0 min 1 min 0,0 UV-I 12 W/m 0,0 km/h (0 Bft)
24.06.2013 21:08 13,0 C 11,8 C 93 % 1023,0 hPa 0,0 l/m 0 min 2 min 0,0 UV-I 11 W/m 0,0 km/h (0 Bft)
24.06.2013 21:10 12,9 C 11,8 C 93 % 1023,1 hPa 0,0 l/m 0 min 2 min 0,0 UV-I 11 W/m 2,6 km/h (1 Bft)
24.06.2013 21:12 13,0 C 11,8 C 93 % 1023,0 hPa 0,0 l/m 0 min 2 min 0,0 UV-I 11 W/m 0,0 km/h (0 Bft)
24.06.2013 21:14 13,0 C 11,8 C 93 % 1023,0 hPa 0,0 l/m 0 min 2 min 0,0 UV-I 11 W/m 7,7 km/h (2 Bft)
24.06.2013 21:16 12,9 C 11,8 C 93 % 1023,0 hPa 0,0 l/m 0 min 2 min 0,0 UV-I 11 W/m 7,7 km/h (2 Bft)
24.06.2013 21:18 12,9 C 11,8 C 93 % 1023,1 hPa 0,0 l/m 0 min 2 min 0,0 UV-I 11 W/m 0,0 km/h (0 Bft)
24.06.2013 21:20 12,9 C 11,8 C 94 % 1023,1 hPa 0,0 l/m 0 min 2 min 0,0 UV-I 11 W/m 0,0 km/h (0 Bft)
24.06.2013 21:22 12,9 C 11,8 C 94 % 1023,2 hPa 0,0 l/m 0 min 2 min 0,0 UV-I 9 W/m 0,0 km/h (0 Bft)
24.06.2013 21:24 12,9 C 11,8 C 94 % 1023,2 hPa 0,0 l/m 0 min 2 min 0,0 UV-I 9 W/m 2,6 km/h (1 Bft)
24.06.2013 21:26 12,9 C 11,2 C 94 % 1023,2 hPa 0,0 l/m 0 min 2 min 0,0 UV-I 7 W/m 7,7 km/h (2 Bft)
24.06.2013 21:28 12,9 C 11,2 C 94 % 1023,2 hPa 0,0 l/m 0 min 2 min 0,0 UV-I 7 W/m 5,1 km/h (1 Bft)
24.06.2013 21:30 12,9 C 11,2 C 94 % 1023,2 hPa 0,0 l/m 0 min 2 min 0,0 UV-I 5 W/m 5,1 km/h (1 Bft)
24.06.2013 21:32 12,8 C 11,2 C 94 % 1023,3 hPa 0,0 l/m 0 min 2 min 0,0 UV-I 5 W/m 2,6 km/h (1 Bft)
24.06.2013 21:34 12,8 C 11,2 C 94 % 1023,3 hPa 0,0 l/m 0 min 2 min 0,0 UV-I 5 W/m 7,7 km/h (2 Bft)
24.06.2013 21:36 12,8 C 11,2 C 94 % 1023,3 hPa 0,2 l/m 0 min 2 min 0,0 UV-I 5 W/m 7,7 km/h (2 Bft)
24.06.2013 21:38 12,8 C 11,2 C 94 % 1023,3 hPa 0,0 l/m 0 min 0 min 0,0 UV-I 0 W/m 5,1 km/h (1 Bft)
24.06.2013 21:40 12,7 C 11,2 C 94 % 1023,3 hPa 0,0 l/m 0 min 0 min 0,0 UV-I 0 W/m 0,0 km/h (0 Bft)
24.06.2013 21:42 12,7 C 11,2 C 94 % 1023,4 hPa 0,0 l/m 0 min 0 min 0,0 UV-I 0 W/m 12,9 km/h (3 Bft)
24.06.2013 21:44 12,7 C 11,2 C 94 % 1023,4 hPa 0,0 l/m 0 min 0 min 0,0 UV-I 0 W/m 0,0 km/h (0 Bft)
24.06.2013 21:46 12,7 C 11,2 C 94 % 1023,4 hPa 0,0 l/m 0 min 0 min 0,0 UV-I 0 W/m 10,3 km/h (2 Bft)
24.06.2013 21:48 12,7 C 11,2 C 94 % 1023,4 hPa 0,0 l/m 0 min 0 min 0,0 UV-I 0 W/m 7,7 km/h (2 Bft)
24.06.2013 21:50 12,7 C 11,2 C 94 % 1023,4 hPa 0,0 l/m 0 min 2 min 0,0 UV-I 0 W/m 10,3 km/h (2 Bft)
24.06.2013 21:52 12,7 C 11,2 C 94 % 1023,4 hPa 0,0 l/m 0 min 2 min 0,0 UV-I 0 W/m 0,0 km/h (0 Bft)
24.06.2013 21:54 12,6 C 11,2 C 94 % 1023,4 hPa 0,0 l/m 0 min 2 min 0,0 UV-I 0 W/m 10,3 km/h (2 Bft)
24.06.2013 21:56 12,6 C 11,2 C 94 % 1023,4 hPa 0,0 l/m 0 min 2 min 0,0 UV-I 0 W/m 0,0 km/h (0 Bft)
24.06.2013 21:58 12,6 C 11,2 C 94 % 1023,4 hPa 0,0 l/m 0 min 0 min 0,0 UV-I 0 W/m 5,1 km/h (1 Bft)
24.06.2013 22:00 12,6 C 11,2 C 94 % 1023,4 hPa 0,0 l/m 0 min 2 min 0,0 UV-I 0 W/m 0,0 km/h (0 Bft)
24.06.2013 22:02 12,6 C 11,2 C 94 % 1023,4 hPa 0,0 l/m 0 min 0 min 0,0 UV-I 0 W/m 0,0 km/h (0 Bft)
24.06.2013 22:05 12,6 C 11,2 C 94 % 1023,5 hPa 0,0 l/m 0 min 0 min 0,0 UV-I 0 W/m 0,0 km/h (0 Bft)
24.06.2013 22:06 12,6 C 11,2 C 94 % 1023,5 hPa 0,0 l/m 0 min 0 min 0,0 UV-I 0 W/m 0,0 km/h (0 Bft)
24.06.2013 22:08 12,6 C 11,2 C 94 % 1023,5 hPa 0,0 l/m 0 min 0 min 0,0 UV-I 0 W/m 0,0 km/h (0 Bft)
24.06.2013 22:10 12,5 C 11,2 C 95 % 1023,5 hPa 0,0 l/m 0 min 0 min 0,0 UV-I 0 W/m 7,7 km/h (2 Bft)
24.06.2013 22:12 12,5 C 11,2 C 95 % 1023,5 hPa 0,0 l/m 0 min 0 min 0,0 UV-I 0 W/m 0,0 km/h (0 Bft)
24.06.2013 22:14 12,5 C 11,2 C 95 % 1023,5 hPa 0,0 l/m 0 min 2 min 0,0 UV-I 0 W/m 0,0 km/h (0 Bft)
24.06.2013 22:16 12,5 C 11,2 C 95 % 1023,5 hPa 0,0 l/m 0 min 2 min 0,0 UV-I 0 W/m 0,0 km/h (0 Bft)
24.06.2013 22:18 12,5 C 11,2 C 95 % 1023,5 hPa 0,0 l/m 0 min 2 min 0,0 UV-I 0 W/m 0,0 km/h (0 Bft)
24.06.2013 22:20 12,4 C 11,2 C 95 % 1023,5 hPa 0,0 l/m 0 min 0 min 0,0 UV-I 0 W/m 5,1 km/h (1 Bft)
24.06.2013 22:22 12,4 C 11,2 C 95 % 1023,5 hPa 0,0 l/m 0 min 0 min 0,0 UV-I 0 W/m 5,1 km/h (1 Bft)
24.06.2013 22:24 12,4 C 11,2 C 95 % 1023,5 hPa 0,0 l/m 0 min 0 min 0,0 UV-I 0 W/m 0,0 km/h (0 Bft)
24.06.2013 22:26 12,4 C 11,2 C 95 % 1023,5 hPa 0,0 l/m 0 min 0 min 0,0 UV-I 0 W/m 0,0 km/h (0 Bft)
24.06.2013 22:28 12,4 C 11,2 C 95 % 1023,5 hPa 0,0 l/m 0 min 0 min 0,0 UV-I 0 W/m 2,6 km/h (1 Bft)
24.06.2013 22:30 12,4 C 11,2 C 95 % 1023,5 hPa 0,0 l/m 0 min 0 min 0,0 UV-I 0 W/m 0,0 km/h (0 Bft)
24.06.2013 22:32 12,4 C 11,2 C 95 % 1023,5 hPa 0,0 l/m 0 min 0 min 0,0 UV-I 0 W/m 0,0 km/h (0 Bft)
24.06.2013 22:34 12,3 C 11,2 C 95 % 1023,5 hPa 0,0 l/m 0 min 0 min 0,0 UV-I 0 W/m 0,0 km/h (0 Bft)
24.06.2013 22:36 12,3 C 11,2 C 95 % 1023,5 hPa 0,0 l/m 0 min 0 min 0,0 UV-I 0 W/m 0,0 km/h (0 Bft)
24.06.2013 22:38 12,3 C 11,2 C 95 % 1023,6 hPa 0,0 l/m 0 min 0 min 0,0 UV-I 0 W/m 0,0 km/h (0 Bft)
24.06.2013 22:40 12,3 C 11,2 C 95 % 1023,5 hPa 0,0 l/m 0 min 0 min 0,0 UV-I 0 W/m 5,1 km/h (1 Bft)
24.06.2013 22:42 12,3 C 11,2 C 95 % 1023,5 hPa 0,0 l/m 0 min 0 min 0,0 UV-I 0 W/m 0,0 km/h (0 Bft)
24.06.2013 22:44 12,3 C 11,2 C 95 % 1023,6 hPa 0,0 l/m 0 min 0 min 0,0 UV-I 0 W/m 0,0 km/h (0 Bft)
24.06.2013 22:46 12,3 C 11,2 C 95 % 1023,6 hPa 0,0 l/m 0 min 0 min 0,0 UV-I 0 W/m 0,0 km/h (0 Bft)
24.06.2013 22:48 12,3 C 11,2 C 95 % 1023,6 hPa 0,0 l/m 0 min 0 min 0,0 UV-I 0 W/m 0,0 km/h (0 Bft)
24.06.2013 22:50 12,3 C 11,2 C 95 % 1023,7 hPa 0,0 l/m 0 min 0 min 0,0 UV-I 0 W/m 0,0 km/h (0 Bft)
24.06.2013 22:52 12,3 C 11,2 C 95 % 1023,6 hPa 0,0 l/m 0 min 0 min 0,0 UV-I 0 W/m 0,0 km/h (0 Bft)
24.06.2013 22:54 12,3 C 11,2 C 95 % 1023,7 hPa 0,0 l/m 0 min 0 min 0,0 UV-I 0 W/m 10,3 km/h (2 Bft)
24.06.2013 22:56 12,3 C 11,2 C 95 % 1023,6 hPa 0,0 l/m 0 min 0 min 0,0 UV-I 0 W/m 12,9 km/h (3 Bft)
24.06.2013 22:58 12,3 C 11,2 C 95 % 1023,6 hPa 0,0 l/m 0 min 0 min 0,0 UV-I 0 W/m 2,6 km/h (1 Bft)
24.06.2013 23:00 12,2 C 11,2 C 95 % 1023,6 hPa 0,0 l/m 0 min 0 min 0,0 UV-I 0 W/m 7,7 km/h (2 Bft)
24.06.2013 23:02 12,2 C 11,2 C 95 % 1023,6 hPa 0,0 l/m 0 min 0 min 0,0 UV-I 0 W/m 2,6 km/h (1 Bft)
24.06.2013 23:06 12,2 C 11,2 C 95 % 1023,6 hPa 0,0 l/m 0 min 0 min 0,0 UV-I 0 W/m 0,0 km/h (0 Bft)
24.06.2013 23:08 12,2 C 11,2 C 95 % 1023,6 hPa 0,0 l/m 0 min 0 min 0,0 UV-I 0 W/m 0,0 km/h (0 Bft)
24.06.2013 23:10 12,2 C 11,2 C 96 % 1023,7 hPa 0,0 l/m 0 min 0 min 0,0 UV-I 0 W/m 0,0 km/h (0 Bft)
24.06.2013 23:12 12,2 C 11,2 C 96 % 1023,7 hPa 0,0 l/m 0 min 0 min 0,0 UV-I 0 W/m 5,1 km/h (1 Bft)
24.06.2013 23:14 12,2 C 11,2 C 96 % 1023,8 hPa 0,0 l/m 0 min 0 min 0,0 UV-I 0 W/m 0,0 km/h (0 Bft)
24.06.2013 23:16 12,2 C 11,2 C 96 % 1023,8 hPa 0,0 l/m 0 min 0 min 0,0 UV-I 0 W/m 0,0 km/h (0 Bft)
24.06.2013 23:18 12,2 C 11,2 C 96 % 1023,8 hPa 0,0 l/m 0 min 0 min 0,0 UV-I 0 W/m 10,3 km/h (2 Bft)
24.06.2013 23:20 12,2 C 11,2 C 96 % 1023,8 hPa 0,0 l/m 0 min 0 min 0,0 UV-I 0 W/m 0,0 km/h (0 Bft)
24.06.2013 23:22 12,2 C 11,2 C 96 % 1023,8 hPa 0,0 l/m 0 min 0 min 0,0 UV-I 0 W/m 7,7 km/h (2 Bft)
24.06.2013 23:24 12,2 C 11,2 C 96 % 1023,8 hPa 0,0 l/m 0 min 0 min 0,0 UV-I 0 W/m 0,0 km/h (0 Bft)
24.06.2013 23:26 12,2 C 11,2 C 96 % 1023,8 hPa 0,0 l/m 0 min 0 min 0,0 UV-I 0 W/m 0,0 km/h (0 Bft)
24.06.2013 23:28 12,2 C 11,2 C 96 % 1023,8 hPa 0,0 l/m 0 min 0 min 0,0 UV-I 0 W/m 0,0 km/h (0 Bft)
24.06.2013 23:30 12,2 C 11,2 C 96 % 1023,8 hPa 0,0 l/m 0 min 0 min 0,0 UV-I 0 W/m 0,0 km/h (0 Bft)
24.06.2013 23:32 12,2 C 11,2 C 96 % 1023,8 hPa 0,0 l/m 0 min 0 min 0,0 UV-I 0 W/m 0,0 km/h (0 Bft)
24.06.2013 23:34 12,2 C 11,2 C 96 % 1023,8 hPa 0,0 l/m 0 min 0 min 0,0 UV-I 0 W/m 0,0 km/h (0 Bft)
24.06.2013 23:36 12,2 C 11,2 C 96 % 1023,8 hPa 0,0 l/m 0 min 0 min 0,0 UV-I 0 W/m 2,6 km/h (1 Bft)
24.06.2013 23:38 12,2 C 11,2 C 96 % 1023,7 hPa 0,0 l/m 0 min 0 min 0,0 UV-I 0 W/m 0,0 km/h (0 Bft)
24.06.2013 23:40 12,2 C 11,2 C 96 % 1023,8 hPa 0,0 l/m 0 min 0 min 0,0 UV-I 0 W/m 0,0 km/h (0 Bft)
24.06.2013 23:42 12,2 C 11,2 C 96 % 1023,9 hPa 0,0 l/m 0 min 0 min 0,0 UV-I 0 W/m 5,1 km/h (1 Bft)
24.06.2013 23:44 12,2 C 11,2 C 96 % 1023,9 hPa 0,0 l/m 0 min 0 min 0,0 UV-I 0 W/m 10,3 km/h (2 Bft)
24.06.2013 23:46 12,2 C 11,2 C 96 % 1023,9 hPa 0,0 l/m 0 min 0 min 0,0 UV-I 0 W/m 7,7 km/h (2 Bft)
24.06.2013 23:48 12,2 C 11,2 C 96 % 1023,9 hPa 0,0 l/m 0 min 0 min 0,0 UV-I 0 W/m 2,6 km/h (1 Bft)
24.06.2013 23:50 12,2 C 11,2 C 96 % 1023,9 hPa 0,0 l/m 0 min 0 min 0,0 UV-I 0 W/m 0,0 km/h (0 Bft)
24.06.2013 23:52 12,2 C 11,2 C 96 % 1023,9 hPa 0,0 l/m 0 min 0 min 0,0 UV-I 0 W/m 0,0 km/h (0 Bft)
24.06.2013 23:54 12,2 C 11,2 C 96 % 1023,9 hPa 0,0 l/m 0 min 0 min 0,0 UV-I 0 W/m 10,3 km/h (2 Bft)
24.06.2013 23:56 12,2 C 11,2 C 96 % 1023,9 hPa 0,0 l/m 0 min 0 min 0,0 UV-I 0 W/m 0,0 km/h (0 Bft)
24.06.2013 23:58 12,2 C 11,2 C 96 % 1023,9 hPa 0,0 l/m 0 min 0 min 0,0 UV-I 0 W/m 0,0 km/h (0 Bft)
_ Min-Zeit 23:00 02:58 15:10 00:00 - - - - - 00:05
Minimum _ 12,2 C 11,2 C 73 % 1014,0 hPa - - - - - 0,0 km/h (0 Bft)
_ Max-Zeit 15:06 15:02 23:10 23:42 02:54 07:50 01:30 14:56 14:58 09:40
Maximum _ 17,7 C 19,6 C 96 % 1023,9 hPa 0,2 l/m 2 min 2 min 5,1 UV-I 1157 W/m 25,7 km/h
W-SW (4 Bft)
Durchschnitt _ 14,3 C 13,6 C 86 % 1018,9 hPa #1,0 l/m #1:15 h #4:07 h 1,4 UV-I 195 W/m 7,9 km/h (2 Bft)
© 2013 W. Hausmann